Time,TemperatureF,DewpointF,PressureIn,WindDirection,WindDirectionDegrees,WindSpeedMPH,WindSpeedGustMPH,Humidity,HourlyPrecipIn,Conditions,Clouds,dailyrainin,SoftwareType,DateUTC
2013-10-31 00:01:00,65.9,60.2,30.20,NE,49,0.0,0.0,82,0.00,RA,,0.00,WeatherDisplay:10.37,2013-10-31 04:01:00,
2013-10-31 00:02:00,65.8,60.2,30.20,NE,49,0.0,0.0,82,0.00,RA,,0.00,WeatherDisplay:10.37,2013-10-31 04:02:00,
2013-10-31 00:06:00,65.8,60.2,30.20,NE,49,0.0,0.0,82,0.00,RA,,0.00,WeatherDisplay:10.37,2013-10-31 04:06:00,
2013-10-31 00:07:00,65.9,60.2,30.20,NE,49,0.0,0.0,82,0.00,RA,,0.00,WeatherDisplay:10.37,2013-10-31 04:07:00,
2013-10-31 00:11:00,66.0,60.3,30.20,NE,49,0.0,0.0,82,0.00,CLR,,0.00,WeatherDisplay:10.37,2013-10-31 04:11:00,
2013-10-31 00:12:00,65.6,60.0,30.20,NE,49,0.0,0.0,82,0.00,CLR,,0.00,WeatherDisplay:10.37,2013-10-31 04:12:00,
2013-10-31 00:16:00,65.6,60.3,30.20,NE,49,0.0,0.0,83,0.00,CLR,,0.00,WeatherDisplay:10.37,2013-10-31 04:16:00,
2013-10-31 00:17:00,65.6,60.3,30.20,NE,49,0.0,0.0,83,0.00,CLR,,0.00,WeatherDisplay:10.37,2013-10-31 04:17:00,
2013-10-31 00:21:00,65.1,59.8,30.20,NE,49,0.0,0.0,83,0.00,CLR,,0.00,WeatherDisplay:10.37,2013-10-31 04:21:00,
2013-10-31 00:22:00,65.5,60.2,30.20,NE,49,0.0,0.0,83,0.00,CLR,,0.00,WeatherDisplay:10.37,2013-10-31 04:22:00,
2013-10-31 00:23:00,65.8,60.5,30.20,NE,49,0.0,0.0,83,0.00,CLR,,0.00,WeatherDisplay:10.37,2013-10-31 04:23:00,
2013-10-31 00:27:00,65.6,60.3,30.20,NE,49,0.0,0.0,83,0.00,CLR,,0.00,WeatherDisplay:10.37,2013-10-31 04:27:00,
2013-10-31 00:28:00,65.7,60.4,30.20,NE,49,0.0,0.0,83,0.00,CLR,,0.00,WeatherDisplay:10.37,2013-10-31 04:28:00,
2013-10-31 00:32:00,65.8,60.5,30.19,NE,49,0.0,0.0,83,0.00,CLR,,0.00,WeatherDisplay:10.37,2013-10-31 04:32:00,
2013-10-31 00:33:00,65.4,60.1,30.19,NE,49,0.0,0.0,83,0.00,CLR,,0.00,WeatherDisplay:10.37,2013-10-31 04:33:00,
2013-10-31 00:37:00,65.5,60.2,30.19,NE,49,0.0,0.0,83,0.00,CLR,,0.00,WeatherDisplay:10.37,2013-10-31 04:37:00,
2013-10-31 00:38:00,65.1,59.8,30.19,NE,49,0.0,0.0,83,0.00,CLR,,0.00,WeatherDisplay:10.37,2013-10-31 04:38:00,
2013-10-31 00:42:00,65.1,59.8,30.19,NE,49,0.0,0.0,83,0.00,CLR,,0.00,WeatherDisplay:10.37,2013-10-31 04:42:00,
2013-10-31 00:43:00,65.7,60.4,30.19,NE,49,0.0,0.0,83,0.00,CLR,,0.00,WeatherDisplay:10.37,2013-10-31 04:43:00,
2013-10-31 00:44:00,65.5,60.2,30.19,NE,49,0.0,0.0,83,0.00,CLR,,0.00,WeatherDisplay:10.37,2013-10-31 04:44:00,
2013-10-31 00:47:00,65.6,60.3,30.19,NE,49,0.0,0.0,83,0.00,CLR,,0.00,WeatherDisplay:10.37,2013-10-31 04:47:00,
2013-10-31 00:48:00,65.6,60.3,30.19,NE,49,0.0,0.0,83,0.00,CLR,,0.00,WeatherDisplay:10.37,2013-10-31 04:48:00,
2013-10-31 00:49:00,65.7,60.4,30.19,NE,49,0.0,0.0,83,0.00,CLR,,0.00,WeatherDisplay:10.37,2013-10-31 04:49:00,
2013-10-31 00:52:00,65.6,60.3,30.19,NE,49,0.0,0.0,83,0.00,CLR,,0.00,WeatherDisplay:10.37,2013-10-31 04:52:00,
2013-10-31 00:53:00,65.1,59.8,30.19,NE,49,0.0,0.0,83,0.00,CLR,,0.00,WeatherDisplay:10.37,2013-10-31 04:53:00,
2013-10-31 00:54:00,65.5,60.2,30.19,NE,49,0.0,0.0,83,0.00,CLR,,0.00,WeatherDisplay:10.37,2013-10-31 04:54:00,
2013-10-31 00:55:00,65.0,59.7,30.19,NE,49,0.0,0.0,83,0.00,CLR,,0.00,WeatherDisplay:10.37,2013-10-31 04:55:00,
2013-10-31 00:57:00,65.4,60.4,30.19,NE,49,0.0,0.0,84,0.00,CLR,,0.00,WeatherDisplay:10.37,2013-10-31 04:57:00,
2013-10-31 00:58:00,65.4,60.4,30.19,NE,49,0.0,0.0,84,0.00,CLR,,0.00,WeatherDisplay:10.37,2013-10-31 04:58:00,
2013-10-31 00:59:00,65.2,60.2,30.19,NE,49,0.0,0.0,84,0.00,CLR,,0.00,WeatherDisplay:10.37,2013-10-31 04:59:00,
2013-10-31 01:00:00,65.4,60.4,30.19,NE,49,0.0,0.0,84,0.00,CLR,,0.00,WeatherDisplay:10.37,2013-10-31 05:00:00,
2013-10-31 01:02:00,65.5,60.5,30.19,NE,49,0.0,0.0,84,0.00,CLR,,0.00,WeatherDisplay:10.37,2013-10-31 05:02:00,
2013-10-31 01:03:00,65.3,60.3,30.19,NE,49,0.0,0.0,84,0.00,CLR,,0.00,WeatherDisplay:10.37,2013-10-31 05:03:00,
2013-10-31 01:04:00,65.2,60.2,30.19,NE,49,0.0,0.0,84,0.00,CLR,,0.00,WeatherDisplay:10.37,2013-10-31 05:04:00,
2013-10-31 01:05:00,65.1,60.1,30.19,NE,49,0.0,0.0,84,0.00,CLR,,0.00,WeatherDisplay:10.37,2013-10-31 05:05:00,
2013-10-31 01:08:00,65.4,60.4,30.19,NE,49,0.0,0.0,84,0.00,CLR,,0.00,WeatherDisplay:10.37,2013-10-31 05:08:00,
2013-10-31 01:09:00,65.1,60.1,30.19,NE,49,0.0,0.0,84,0.00,CLR,,0.00,WeatherDisplay:10.37,2013-10-31 05:09:00,
2013-10-31 01:11:00,65.3,60.3,30.19,NE,49,0.0,0.0,84,0.00,CLR,,0.00,WeatherDisplay:10.37,2013-10-31 05:11:00,
2013-10-31 01:13:00,65.2,60.2,30.19,NE,49,0.0,0.0,84,0.00,CLR,,0.00,WeatherDisplay:10.37,2013-10-31 05:13:00,
2013-10-31 01:14:00,65.0,60.0,30.19,NE,49,0.0,0.0,84,0.00,CLR,,0.00,WeatherDisplay:10.37,2013-10-31 05:14:00,
2013-10-31 01:15:00,64.8,59.9,30.19,NE,49,0.0,0.0,84,0.00,CLR,,0.00,WeatherDisplay:10.37,2013-10-31 05:15:00,
2013-10-31 01:16:00,65.6,60.6,30.19,NE,49,0.0,0.0,84,0.00,CLR,,0.00,WeatherDisplay:10.37,2013-10-31 05:16:00,
2013-10-31 01:18:00,65.2,60.2,30.19,NE,49,0.0,0.0,84,0.00,CLR,,0.00,WeatherDisplay:10.37,2013-10-31 05:18:00,
2013-10-31 01:19:00,64.8,59.9,30.19,NE,49,0.0,0.0,84,0.00,CLR,,0.00,WeatherDisplay:10.37,2013-10-31 05:19:00,
2013-10-31 01:20:00,64.9,59.9,30.19,NE,49,0.0,0.0,84,0.00,CLR,,0.00,WeatherDisplay:10.37,2013-10-31 05:20:00,
2013-10-31 01:21:00,64.9,59.9,30.19,NE,49,0.0,0.0,84,0.00,CLR,,0.00,WeatherDisplay:10.37,2013-10-31 05:21:00,
2013-10-31 01:23:00,64.9,59.9,30.19,NE,49,0.0,0.0,84,0.00,CLR,,0.00,WeatherDisplay:10.37,2013-10-31 05:23:00,
2013-10-31 01:24:00,65.4,60.4,30.19,NE,49,0.0,0.0,84,0.00,CLR,,0.00,WeatherDisplay:10.37,2013-10-31 05:24:00,
2013-10-31 01:25:00,65.3,60.3,30.18,NE,49,0.0,0.0,84,0.00,CLR,,0.00,WeatherDisplay:10.37,2013-10-31 05:25:00,
2013-10-31 01:26:00,65.1,60.5,30.18,NE,49,0.0,0.0,85,0.00,CLR,,0.00,WeatherDisplay:10.37,2013-10-31 05:26:00,
2013-10-31 01:29:00,65.3,60.7,30.18,NE,49,0.0,0.0,85,0.00,CLR,,0.00,WeatherDisplay:10.37,2013-10-31 05:29:00,
2013-10-31 01:30:00,64.9,60.3,30.18,NE,49,0.0,0.0,85,0.00,CLR,,0.00,WeatherDisplay:10.37,2013-10-31 05:30:00,
2013-10-31 01:31:00,65.1,60.5,30.18,NE,49,0.0,0.0,85,0.00,CLR,,0.00,WeatherDisplay:10.37,2013-10-31 05:31:00,
2013-10-31 01:34:00,65.1,60.5,30.18,NE,49,0.0,0.0,85,0.00,CLR,,0.00,WeatherDisplay:10.37,2013-10-31 05:34:00,
2013-10-31 01:35:00,64.7,60.1,30.18,NE,49,0.0,0.0,85,0.00,CLR,,0.00,WeatherDisplay:10.37,2013-10-31 05:35:00,
2013-10-31 01:36:00,64.6,60.0,30.18,NE,49,0.0,0.0,85,0.00,CLR,,0.00,WeatherDisplay:10.37,2013-10-31 05:36:00,
2013-10-31 01:37:00,65.3,60.7,30.18,NE,49,0.0,0.0,85,0.00,CLR,,0.00,WeatherDisplay:10.37,2013-10-31 05:37:00,
2013-10-31 01:39:00,65.2,60.6,30.18,NE,49,0.0,0.0,85,0.00,CLR,,0.00,WeatherDisplay:10.37,2013-10-31 05:39:00,
2013-10-31 01:40:00,64.8,60.2,30.18,NE,49,0.0,0.0,85,0.00,CLR,,0.00,WeatherDisplay:10.37,2013-10-31 05:40:00,
2013-10-31 01:42:00,64.7,60.1,30.18,NE,49,0.0,0.0,85,0.00,CLR,,0.00,WeatherDisplay:10.37,2013-10-31 05:42:00,
2013-10-31 01:43:00,64.4,59.8,30.18,NE,49,0.0,0.0,85,0.00,CLR,,0.00,WeatherDisplay:10.37,2013-10-31 05:43:00,
2013-10-31 01:44:00,64.9,60.3,30.18,NE,49,0.0,0.0,85,0.00,CLR,,0.00,WeatherDisplay:10.37,2013-10-31 05:44:00,
2013-10-31 01:45:00,64.7,60.1,30.18,NE,49,0.0,0.0,85,0.00,CLR,,0.00,WeatherDisplay:10.37,2013-10-31 05:45:00,
2013-10-31 01:47:00,65.0,60.4,30.18,NE,49,0.0,0.0,85,0.00,CLR,,0.00,WeatherDisplay:10.37,2013-10-31 05:47:00,
2013-10-31 01:48:00,64.6,60.0,30.18,NE,49,0.0,0.0,85,0.00,CLR,,0.00,WeatherDisplay:10.37,2013-10-31 05:48:00,
2013-10-31 01:49:00,64.8,60.2,30.18,NE,49,0.0,0.0,85,0.00,CLR,,0.00,WeatherDisplay:10.37,2013-10-31 05:49:00,
2013-10-31 01:50:00,64.8,60.2,30.18,NE,49,0.0,0.0,85,0.00,CLR,,0.00,WeatherDisplay:10.37,2013-10-31 05:50:00,
2013-10-31 01:51:00,64.6,60.0,30.18,NE,49,0.0,0.0,85,0.00,CLR,,0.00,WeatherDisplay:10.37,2013-10-31 05:51:00,
2013-10-31 01:52:00,64.6,60.0,30.18,NE,49,0.0,0.0,85,0.00,CLR,,0.00,WeatherDisplay:10.37,2013-10-31 05:52:00,
2013-10-31 01:53:00,64.7,60.1,30.18,NE,49,0.0,0.0,85,0.00,CLR,,0.00,WeatherDisplay:10.37,2013-10-31 05:53:00,
2013-10-31 01:55:00,64.5,59.9,30.18,NE,49,0.0,0.0,85,0.00,CLR,,0.00,WeatherDisplay:10.37,2013-10-31 05:55:00,
2013-10-31 01:56:00,64.2,59.6,30.18,NE,49,0.0,0.0,85,0.00,CLR,,0.00,WeatherDisplay:10.37,2013-10-31 05:56:00,
2013-10-31 01:57:00,64.1,59.5,30.18,NE,49,0.0,0.0,85,0.00,CLR,,0.00,WeatherDisplay:10.37,2013-10-31 05:57:00,
2013-10-31 01:58:00,64.7,60.1,30.18,NE,49,0.0,0.0,85,0.00,CLR,,0.00,WeatherDisplay:10.37,2013-10-31 05:58:00,
2013-10-31 02:00:00,64.0,59.4,30.18,NE,49,0.0,0.0,85,0.00,CLR,,0.00,WeatherDisplay:10.37,2013-10-31 06:00:00,
2013-10-31 02:01:00,64.1,59.5,30.18,NE,49,0.0,0.0,85,0.00,CLR,,0.00,WeatherDisplay:10.37,2013-10-31 06:01:00,
2013-10-31 02:03:00,64.7,60.4,30.18,NE,49,0.0,0.0,86,0.00,CLR,,0.00,WeatherDisplay:10.37,2013-10-31 06:03:00,
2013-10-31 02:05:00,64.3,60.0,30.18,NE,49,0.0,0.0,86,0.00,CLR,,0.00,WeatherDisplay:10.37,2013-10-31 06:05:00,
2013-10-31 02:06:00,64.4,60.1,30.18,NE,49,0.0,0.0,86,0.00,CLR,,0.00,WeatherDisplay:10.37,2013-10-31 06:06:00,
2013-10-31 02:08:00,64.3,60.0,30.18,NE,49,0.0,0.0,86,0.00,CLR,,0.00,WeatherDisplay:10.37,2013-10-31 06:08:00,
2013-10-31 02:10:00,64.4,60.1,30.18,NE,49,0.0,0.0,86,0.00,CLR,,0.00,WeatherDisplay:10.37,2013-10-31 06:10:00,
2013-10-31 02:11:00,64.1,59.8,30.17,NE,49,0.0,0.0,86,0.00,CLR,,0.00,WeatherDisplay:10.37,2013-10-31 06:11:00,
2013-10-31 02:13:00,64.1,59.8,30.17,NE,49,0.0,0.0,86,0.00,CLR,,0.00,WeatherDisplay:10.37,2013-10-31 06:13:00,
2013-10-31 02:14:00,64.3,60.0,30.17,NE,49,0.0,0.0,86,0.00,CLR,,0.00,WeatherDisplay:10.37,2013-10-31 06:14:00,
2013-10-31 02:15:00,64.4,60.1,30.17,NE,49,0.0,0.0,86,0.00,CLR,,0.00,WeatherDisplay:10.37,2013-10-31 06:15:00,
2013-10-31 02:16:00,64.1,59.8,30.17,NE,49,0.0,0.0,86,0.00,CLR,,0.00,WeatherDisplay:10.37,2013-10-31 06:16:00,
2013-10-31 02:17:00,64.5,60.2,30.17,NE,49,0.0,0.0,86,0.00,CLR,,0.00,WeatherDisplay:10.37,2013-10-31 06:17:00,
2013-10-31 02:18:00,63.8,59.5,30.17,NE,49,0.0,0.0,86,0.00,CLR,,0.00,WeatherDisplay:10.37,2013-10-31 06:18:00,
2013-10-31 02:19:00,64.1,59.8,30.17,NE,49,0.0,0.0,86,0.00,CLR,,0.00,WeatherDisplay:10.37,2013-10-31 06:19:00,
2013-10-31 02:20:00,63.7,59.4,30.17,NE,49,0.0,0.0,86,0.00,CLR,,0.00,WeatherDisplay:10.37,2013-10-31 06:20:00,
2013-10-31 02:21:00,64.2,59.9,30.17,NE,49,0.0,0.0,86,0.00,CLR,,0.00,WeatherDisplay:10.37,2013-10-31 06:21:00,
2013-10-31 02:22:00,64.0,59.7,30.17,NE,49,0.0,0.0,86,0.00,CLR,,0.00,WeatherDisplay:10.37,2013-10-31 06:22:00,
2013-10-31 02:24:00,64.2,59.9,30.17,NE,49,0.0,0.0,86,0.00,CLR,,0.00,WeatherDisplay:10.37,2013-10-31 06:24:00,
2013-10-31 02:25:00,63.8,59.5,30.17,NE,49,0.0,0.0,86,0.00,CLR,,0.00,WeatherDisplay:10.37,2013-10-31 06:25:00,
2013-10-31 02:26:00,63.8,59.5,30.17,NE,49,0.0,0.0,86,0.00,CLR,,0.00,WeatherDisplay:10.37,2013-10-31 06:26:00,
2013-10-31 02:27:00,63.9,59.6,30.17,NE,49,0.0,0.0,86,0.00,CLR,,0.00,WeatherDisplay:10.37,2013-10-31 06:27:00,
2013-10-31 02:28:00,63.6,59.3,30.17,NE,49,0.0,0.0,86,0.00,CLR,,0.00,WeatherDisplay:10.37,2013-10-31 06:28:00,
2013-10-31 02:29:00,63.6,59.3,30.17,NE,49,0.0,0.0,86,0.00,CLR,,0.00,WeatherDisplay:10.37,2013-10-31 06:29:00,
2013-10-31 02:30:00,63.5,59.2,30.17,NE,49,0.0,0.0,86,0.00,CLR,,0.00,WeatherDisplay:10.37,2013-10-31 06:30:00,
2013-10-31 02:31:00,63.8,59.5,30.17,NE,49,0.0,0.0,86,0.00,CLR,,0.00,WeatherDisplay:10.37,2013-10-31 06:31:00,
2013-10-31 02:32:00,63.5,59.2,30.17,NE,49,0.0,0.0,86,0.00,CLR,,0.00,WeatherDisplay:10.37,2013-10-31 06:32:00,
2013-10-31 02:33:00,63.6,59.3,30.17,NE,49,0.0,0.0,86,0.00,CLR,,0.00,WeatherDisplay:10.37,2013-10-31 06:33:00,
2013-10-31 02:34:00,63.8,59.5,30.17,NE,49,0.0,0.0,86,0.00,CLR,,0.00,WeatherDisplay:10.37,2013-10-31 06:34:00,
2013-10-31 02:36:00,63.3,59.4,30.17,NE,49,0.0,0.0,87,0.00,CLR,,0.00,WeatherDisplay:10.37,2013-10-31 06:36:00,
2013-10-31 02:38:00,63.2,59.3,30.17,NE,49,0.0,0.0,87,0.00,CLR,,0.00,WeatherDisplay:10.37,2013-10-31 06:38:00,
2013-10-31 02:39:00,63.6,59.7,30.17,NE,49,0.0,0.0,87,0.00,CLR,,0.00,WeatherDisplay:10.37,2013-10-31 06:39:00,
2013-10-31 02:41:00,63.8,59.9,30.18,NE,49,0.0,0.0,87,0.00,CLR,,0.00,WeatherDisplay:10.37,2013-10-31 06:41:00,
2013-10-31 02:43:00,63.4,59.5,30.18,NE,49,0.0,0.0,87,0.00,CLR,,0.00,WeatherDisplay:10.37,2013-10-31 06:43:00,
2013-10-31 02:44:00,63.9,60.0,30.18,NE,49,0.0,0.0,87,0.00,CLR,,0.00,WeatherDisplay:10.37,2013-10-31 06:44:00,
2013-10-31 02:46:00,63.2,59.3,30.18,NE,49,0.0,0.0,87,0.00,CLR,,0.00,WeatherDisplay:10.37,2013-10-31 06:46:00,
2013-10-31 02:47:00,63.5,59.6,30.18,NE,49,0.0,0.0,87,0.00,CLR,,0.00,WeatherDisplay:10.37,2013-10-31 06:47:00,
2013-10-31 02:48:00,63.6,59.7,30.18,NE,49,0.0,0.0,87,0.00,CLR,,0.00,WeatherDisplay:10.37,2013-10-31 06:48:00,
2013-10-31 02:49:00,63.3,59.4,30.18,NE,49,0.0,0.0,87,0.00,CLR,,0.00,WeatherDisplay:10.37,2013-10-31 06:49:00,
2013-10-31 02:51:00,63.5,59.9,30.17,NE,49,0.0,0.0,88,0.00,CLR,,0.00,WeatherDisplay:10.37,2013-10-31 06:51:00,
2013-10-31 02:52:00,63.4,59.8,30.17,NE,49,0.0,0.0,88,0.00,CLR,,0.00,WeatherDisplay:10.37,2013-10-31 06:52:00,
2013-10-31 02:54:00,63.5,59.9,30.18,NE,49,0.0,0.0,88,0.00,CLR,,0.00,WeatherDisplay:10.37,2013-10-31 06:54:00,
2013-10-31 02:56:00,63.4,59.8,30.18,NE,49,0.0,0.0,88,0.00,CLR,,0.00,WeatherDisplay:10.37,2013-10-31 06:56:00,
2013-10-31 02:57:00,62.9,59.3,30.18,NE,49,0.0,0.0,88,0.00,CLR,,0.00,WeatherDisplay:10.37,2013-10-31 06:57:00,
2013-10-31 02:59:00,63.4,59.8,30.17,NE,49,0.0,0.0,88,0.00,CLR,,0.00,WeatherDisplay:10.37,2013-10-31 06:59:00,
2013-10-31 03:01:00,63.7,60.1,30.17,NE,49,0.0,0.0,88,0.00,CLR,,0.00,WeatherDisplay:10.37,2013-10-31 07:01:00,
2013-10-31 03:02:00,63.5,59.9,30.17,NE,49,0.0,0.0,88,0.00,CLR,,0.00,WeatherDisplay:10.37,2013-10-31 07:02:00,
2013-10-31 03:03:00,63.6,60.0,30.17,NE,49,0.0,0.0,88,0.00,CLR,,0.00,WeatherDisplay:10.37,2013-10-31 07:03:00,
2013-10-31 03:04:00,63.5,59.9,30.17,NE,49,0.0,0.0,88,0.00,CLR,,0.00,WeatherDisplay:10.37,2013-10-31 07:04:00,
2013-10-31 03:05:00,63.5,59.9,30.17,NE,49,0.0,0.0,88,0.00,CLR,,0.00,WeatherDisplay:10.37,2013-10-31 07:05:00,
2013-10-31 03:06:00,63.4,59.8,30.17,NE,49,0.0,0.0,88,0.00,CLR,,0.00,WeatherDisplay:10.37,2013-10-31 07:06:00,
2013-10-31 03:07:00,63.2,59.6,30.17,NE,49,0.0,0.0,88,0.00,CLR,,0.00,WeatherDisplay:10.37,2013-10-31 07:07:00,
2013-10-31 03:09:00,63.5,59.9,30.17,NE,49,0.0,0.0,88,0.00,CLR,,0.00,WeatherDisplay:10.37,2013-10-31 07:09:00,
2013-10-31 03:10:00,63.8,60.2,30.17,NE,49,0.0,0.0,88,0.00,CLR,,0.00,WeatherDisplay:10.37,2013-10-31 07:10:00,
2013-10-31 03:11:00,63.2,59.6,30.17,NE,49,0.0,0.0,88,0.00,CLR,,0.00,WeatherDisplay:10.37,2013-10-31 07:11:00,
2013-10-31 03:12:00,63.2,59.6,30.16,NE,49,0.0,0.0,88,0.00,CLR,,0.00,WeatherDisplay:10.37,2013-10-31 07:12:00,
2013-10-31 03:14:00,63.4,59.8,30.16,NE,49,0.0,0.0,88,0.00,CLR,,0.00,WeatherDisplay:10.37,2013-10-31 07:14:00,
2013-10-31 03:15:00,63.6,60.0,30.16,NE,49,0.0,0.0,88,0.00,CLR,,0.00,WeatherDisplay:10.37,2013-10-31 07:15:00,
2013-10-31 03:16:00,63.6,60.0,30.16,NE,49,0.0,0.0,88,0.00,CLR,,0.00,WeatherDisplay:10.37,2013-10-31 07:16:00,
2013-10-31 03:17:00,63.5,59.9,30.16,NE,49,0.0,0.0,88,0.00,CLR,,0.00,WeatherDisplay:10.37,2013-10-31 07:17:00,
2013-10-31 03:19:00,63.6,60.0,30.17,NE,49,0.0,0.0,88,0.00,CLR,,0.00,WeatherDisplay:10.37,2013-10-31 07:19:00,
2013-10-31 03:20:00,63.0,59.4,30.17,NE,49,0.0,0.0,88,0.00,CLR,,0.00,WeatherDisplay:10.37,2013-10-31 07:20:00,
2013-10-31 03:21:00,63.4,59.8,30.17,NE,49,0.0,0.0,88,0.00,CLR,,0.00,WeatherDisplay:10.37,2013-10-31 07:21:00,
2013-10-31 03:22:00,63.2,59.6,30.17,NE,49,0.0,0.0,88,0.00,CLR,,0.00,WeatherDisplay:10.37,2013-10-31 07:22:00,
2013-10-31 03:23:00,63.7,60.1,30.17,NE,49,0.0,0.0,88,0.00,CLR,,0.00,WeatherDisplay:10.37,2013-10-31 07:23:00,
2013-10-31 03:24:00,63.0,59.4,30.17,NE,49,0.0,0.0,88,0.00,CLR,,0.00,WeatherDisplay:10.37,2013-10-31 07:24:00,
2013-10-31 03:25:00,63.8,60.2,30.17,NE,49,0.0,0.0,88,0.00,CLR,,0.00,WeatherDisplay:10.37,2013-10-31 07:25:00,
2013-10-31 03:26:00,63.7,60.1,30.17,NE,49,0.0,0.0,88,0.00,CLR,,0.00,WeatherDisplay:10.37,2013-10-31 07:26:00,
2013-10-31 03:27:00,63.1,59.5,30.17,NE,49,0.0,0.0,88,0.00,CLR,,0.00,WeatherDisplay:10.37,2013-10-31 07:27:00,
2013-10-31 03:28:00,63.4,59.8,30.17,NE,49,0.0,0.0,88,0.00,CLR,,0.00,WeatherDisplay:10.37,2013-10-31 07:28:00,
2013-10-31 03:29:00,63.4,59.8,30.17,NE,49,0.0,0.0,88,0.00,CLR,,0.00,WeatherDisplay:10.37,2013-10-31 07:29:00,
2013-10-31 03:31:00,63.3,59.7,30.17,NE,49,0.0,0.0,88,0.00,CLR,,0.00,WeatherDisplay:10.37,2013-10-31 07:31:00,
2013-10-31 03:32:00,63.3,59.7,30.17,NE,49,0.0,0.0,88,0.00,CLR,,0.00,WeatherDisplay:10.37,2013-10-31 07:32:00,
2013-10-31 03:33:00,63.4,59.8,30.17,NE,49,0.0,0.0,88,0.00,CLR,,0.00,WeatherDisplay:10.37,2013-10-31 07:33:00,
2013-10-31 03:35:00,63.0,59.4,30.17,NE,49,0.0,0.0,88,0.00,CLR,,0.00,WeatherDisplay:10.37,2013-10-31 07:35:00,
2013-10-31 03:36:00,63.3,59.7,30.17,NE,49,0.0,0.0,88,0.00,CLR,,0.00,WeatherDisplay:10.37,2013-10-31 07:36:00,
2013-10-31 03:37:00,63.4,60.1,30.17,NE,49,0.0,0.0,89,0.00,CLR,,0.00,WeatherDisplay:10.37,2013-10-31 07:37:00,
2013-10-31 03:38:00,62.7,59.4,30.17,NE,49,0.0,0.0,89,0.00,CLR,,0.00,WeatherDisplay:10.37,2013-10-31 07:38:00,
2013-10-31 03:40:00,62.8,59.5,30.17,NE,49,0.0,0.0,89,0.00,CLR,,0.00,WeatherDisplay:10.37,2013-10-31 07:40:00,
2013-10-31 03:41:00,63.2,59.6,30.17,NE,49,0.0,0.0,88,0.00,CLR,,0.00,WeatherDisplay:10.37,2013-10-31 07:41:00,
2013-10-31 03:42:00,63.4,59.8,30.17,NE,49,0.0,0.0,88,0.00,CLR,,0.00,WeatherDisplay:10.37,2013-10-31 07:42:00,
2013-10-31 03:43:00,62.6,59.0,30.17,NE,49,0.0,0.0,88,0.00,CLR,,0.00,WeatherDisplay:10.37,2013-10-31 07:43:00,
2013-10-31 03:44:00,63.1,59.5,30.17,NE,49,0.0,0.0,88,0.00,CLR,,0.00,WeatherDisplay:10.37,2013-10-31 07:44:00,
2013-10-31 03:45:00,63.4,59.8,30.17,NE,49,0.0,0.0,88,0.00,CLR,,0.00,WeatherDisplay:10.37,2013-10-31 07:45:00,
2013-10-31 03:46:00,63.1,59.5,30.17,NE,49,0.0,0.0,88,0.00,CLR,,0.00,WeatherDisplay:10.37,2013-10-31 07:46:00,
2013-10-31 03:47:00,63.3,60.0,30.17,NE,49,0.0,0.0,89,0.00,CLR,,0.00,WeatherDisplay:10.37,2013-10-31 07:47:00,
2013-10-31 03:48:00,63.5,60.2,30.17,NE,49,0.0,0.0,89,0.00,CLR,,0.00,WeatherDisplay:10.37,2013-10-31 07:48:00,
2013-10-31 03:49:00,63.3,60.0,30.17,NE,49,0.0,0.0,89,0.00,CLR,,0.00,WeatherDisplay:10.37,2013-10-31 07:49:00,
2013-10-31 03:50:00,62.8,59.5,30.17,NE,49,0.0,0.0,89,0.00,CLR,,0.00,WeatherDisplay:10.37,2013-10-31 07:50:00,
2013-10-31 03:51:00,63.2,59.9,30.17,NE,49,0.0,0.0,89,0.00,CLR,,0.00,WeatherDisplay:10.37,2013-10-31 07:51:00,
2013-10-31 03:52:00,63.0,59.7,30.17,NE,49,0.0,0.0,89,0.00,CLR,,0.00,WeatherDisplay:10.37,2013-10-31 07:52:00,
2013-10-31 03:53:00,62.9,59.6,30.17,NE,49,0.0,0.0,89,0.00,CLR,,0.00,WeatherDisplay:10.37,2013-10-31 07:53:00,
2013-10-31 03:54:00,62.9,59.6,30.16,NE,49,0.0,0.0,89,0.00,CLR,,0.00,WeatherDisplay:10.37,2013-10-31 07:54:00,
2013-10-31 03:56:00,63.0,59.7,30.16,NE,49,0.0,0.0,89,0.00,CLR,,0.00,WeatherDisplay:10.37,2013-10-31 07:56:00,
2013-10-31 03:57:00,63.0,59.7,30.16,NE,49,0.0,0.0,89,0.00,CLR,,0.00,WeatherDisplay:10.37,2013-10-31 07:57:00,
2013-10-31 03:58:00,63.4,60.1,30.16,NE,49,0.0,0.0,89,0.00,CLR,,0.00,WeatherDisplay:10.37,2013-10-31 07:58:00,
2013-10-31 03:59:00,63.1,59.8,30.16,NE,49,0.0,0.0,89,0.00,CLR,,0.00,WeatherDisplay:10.37,2013-10-31 07:59:00,
2013-10-31 04:01:00,63.0,59.7,30.16,NE,49,0.0,0.0,89,0.00,CLR,,0.00,WeatherDisplay:10.37,2013-10-31 08:01:00,
2013-10-31 04:02:00,62.7,59.4,30.16,NE,49,0.0,0.0,89,0.00,CLR,,0.00,WeatherDisplay:10.37,2013-10-31 08:02:00,
2013-10-31 04:03:00,62.8,59.5,30.16,NE,49,0.0,0.0,89,0.00,CLR,,0.00,WeatherDisplay:10.37,2013-10-31 08:03:00,
2013-10-31 04:04:00,62.7,59.4,30.16,NE,49,0.0,0.0,89,0.00,CLR,,0.00,WeatherDisplay:10.37,2013-10-31 08:04:00,
2013-10-31 04:05:00,63.5,60.2,30.16,NE,49,0.0,0.0,89,0.00,CLR,,0.00,WeatherDisplay:10.37,2013-10-31 08:05:00,
2013-10-31 04:06:00,62.7,59.4,30.16,NE,49,0.0,0.0,89,0.00,CLR,,0.00,WeatherDisplay:10.37,2013-10-31 08:06:00,
2013-10-31 04:07:00,63.1,59.8,30.16,NE,49,0.0,0.0,89,0.00,CLR,,0.00,WeatherDisplay:10.37,2013-10-31 08:07:00,
2013-10-31 04:08:00,62.9,59.6,30.16,NE,49,0.0,0.0,89,0.00,CLR,,0.00,WeatherDisplay:10.37,2013-10-31 08:08:00,
2013-10-31 04:09:00,62.9,59.6,30.16,NE,49,0.0,0.0,89,0.00,CLR,,0.00,WeatherDisplay:10.37,2013-10-31 08:09:00,
2013-10-31 04:10:00,63.0,59.7,30.15,NE,49,0.0,0.0,89,0.00,CLR,,0.00,WeatherDisplay:10.37,2013-10-31 08:10:00,
2013-10-31 04:11:00,62.7,59.4,30.15,NE,49,0.0,0.0,89,0.00,CLR,,0.00,WeatherDisplay:10.37,2013-10-31 08:11:00,
2013-10-31 04:12:00,63.0,59.7,30.15,NE,49,0.0,0.0,89,0.00,CLR,,0.00,WeatherDisplay:10.37,2013-10-31 08:12:00,
2013-10-31 04:14:00,62.6,59.3,30.15,NE,49,0.0,0.0,89,0.00,CLR,,0.00,WeatherDisplay:10.37,2013-10-31 08:14:00,
2013-10-31 04:16:00,62.9,59.6,30.15,NE,49,0.0,0.0,89,0.00,CLR,,0.00,WeatherDisplay:10.37,2013-10-31 08:16:00,
2013-10-31 04:17:00,62.6,59.3,30.15,NE,49,0.0,0.0,89,0.00,CLR,,0.00,WeatherDisplay:10.37,2013-10-31 08:17:00,
2013-10-31 04:19:00,63.3,60.0,30.14,NE,49,0.0,0.0,89,0.00,CLR,,0.00,WeatherDisplay:10.37,2013-10-31 08:19:00,
2013-10-31 04:21:00,62.7,59.4,30.14,NE,49,0.0,0.0,89,0.00,CLR,,0.00,WeatherDisplay:10.37,2013-10-31 08:21:00,
2013-10-31 04:22:00,62.9,59.6,30.14,NE,49,0.0,0.0,89,0.00,CLR,,0.00,WeatherDisplay:10.37,2013-10-31 08:22:00,
2013-10-31 04:24:00,62.5,59.2,30.14,NE,49,0.0,0.0,89,0.00,CLR,,0.00,WeatherDisplay:10.37,2013-10-31 08:24:00,
2013-10-31 04:26:00,62.5,59.2,30.14,NE,49,0.0,0.0,89,0.00,CLR,,0.00,WeatherDisplay:10.37,2013-10-31 08:26:00,
2013-10-31 04:27:00,62.3,59.0,30.14,NE,49,0.0,0.0,89,0.00,CLR,,0.00,WeatherDisplay:10.37,2013-10-31 08:27:00,
2013-10-31 04:28:00,62.1,58.8,30.14,NE,49,0.0,0.0,89,0.00,CLR,,0.00,WeatherDisplay:10.37,2013-10-31 08:28:00,
2013-10-31 04:29:00,62.6,59.3,30.14,NE,49,0.0,0.0,89,0.00,CLR,,0.00,WeatherDisplay:10.37,2013-10-31 08:29:00,
2013-10-31 04:30:00,62.5,59.2,30.14,NE,49,0.0,0.0,89,0.00,CLR,,0.00,WeatherDisplay:10.37,2013-10-31 08:30:00,
2013-10-31 04:32:00,62.5,59.2,30.14,NE,49,0.0,0.0,89,0.00,CLR,,0.00,WeatherDisplay:10.37,2013-10-31 08:32:00,
2013-10-31 04:33:00,62.1,58.8,30.14,NE,49,0.0,0.0,89,0.00,CLR,,0.00,WeatherDisplay:10.37,2013-10-31 08:33:00,
2013-10-31 04:34:00,62.4,59.1,30.14,NE,49,0.0,0.0,89,0.00,CLR,,0.00,WeatherDisplay:10.37,2013-10-31 08:34:00,
2013-10-31 04:35:00,62.7,59.4,30.14,NE,49,0.0,0.0,89,0.00,CLR,,0.00,WeatherDisplay:10.37,2013-10-31 08:35:00,
2013-10-31 04:37:00,62.7,59.4,30.14,NE,49,0.0,0.0,89,0.00,CLR,,0.00,WeatherDisplay:10.37,2013-10-31 08:37:00,
2013-10-31 04:38:00,62.4,59.1,30.14,NE,49,0.0,0.0,89,0.00,CLR,,0.00,WeatherDisplay:10.37,2013-10-31 08:38:00,
2013-10-31 04:39:00,62.2,59.2,30.14,North,0,0.0,0.0,90,0.00,CLR,,0.00,WeatherDisplay:10.37,2013-10-31 08:39:00,
2013-10-31 04:41:00,62.3,59.3,30.14,North,0,0.0,0.0,90,0.00,CLR,,0.00,WeatherDisplay:10.37,2013-10-31 08:41:00,
2013-10-31 04:42:00,62.7,59.7,30.14,North,0,0.0,0.0,90,0.00,CLR,,0.00,WeatherDisplay:10.37,2013-10-31 08:42:00,
2013-10-31 04:43:00,62.3,59.3,30.14,North,0,0.0,0.0,90,0.00,CLR,,0.00,WeatherDisplay:10.37,2013-10-31 08:43:00,
2013-10-31 04:44:00,62.0,59.0,30.14,North,0,0.0,0.0,90,0.00,CLR,,0.00,WeatherDisplay:10.37,2013-10-31 08:44:00,
2013-10-31 04:46:00,62.4,59.4,30.14,North,0,0.0,0.0,90,0.00,CLR,,0.00,WeatherDisplay:10.37,2013-10-31 08:46:00,
2013-10-31 04:47:00,62.2,59.2,30.14,North,0,0.0,0.0,90,0.00,CLR,,0.00,WeatherDisplay:10.37,2013-10-31 08:47:00,
2013-10-31 04:48:00,62.0,59.0,30.14,North,0,0.0,0.0,90,0.00,CLR,,0.00,WeatherDisplay:10.37,2013-10-31 08:48:00,
2013-10-31 04:49:00,62.3,59.3,30.14,North,0,0.0,0.0,90,0.00,CLR,,0.00,WeatherDisplay:10.37,2013-10-31 08:49:00,
2013-10-31 04:50:00,61.8,58.8,30.14,North,0,0.0,0.0,90,0.00,CLR,,0.00,WeatherDisplay:10.37,2013-10-31 08:50:00,
2013-10-31 04:51:00,62.2,59.2,30.14,North,0,0.0,0.0,90,0.00,CLR,,0.00,WeatherDisplay:10.37,2013-10-31 08:51:00,
2013-10-31 04:52:00,62.2,59.2,30.14,North,0,0.0,0.0,90,0.00,CLR,,0.00,WeatherDisplay:10.37,2013-10-31 08:52:00,
2013-10-31 04:53:00,62.5,59.5,30.14,North,0,0.0,0.0,90,0.00,CLR,,0.00,WeatherDisplay:10.37,2013-10-31 08:53:00,
2013-10-31 04:54:00,62.5,59.5,30.14,North,0,0.0,0.0,90,0.00,CLR,,0.00,WeatherDisplay:10.37,2013-10-31 08:54:00,
2013-10-31 04:55:00,62.4,59.4,30.14,North,0,0.0,0.0,90,0.00,CLR,,0.00,WeatherDisplay:10.37,2013-10-31 08:55:00,
2013-10-31 04:56:00,62.5,59.5,30.14,North,0,0.0,0.0,90,0.00,CLR,,0.00,WeatherDisplay:10.37,2013-10-31 08:56:00,
2013-10-31 04:57:00,62.2,59.2,30.14,North,0,0.0,0.0,90,0.00,CLR,,0.00,WeatherDisplay:10.37,2013-10-31 08:57:00,
2013-10-31 04:58:00,62.1,59.1,30.14,North,0,0.0,0.0,90,0.00,CLR,,0.00,WeatherDisplay:10.37,2013-10-31 08:58:00,
2013-10-31 04:59:00,61.9,58.9,30.14,North,0,0.0,0.0,90,0.00,CLR,,0.00,WeatherDisplay:10.37,2013-10-31 08:59:00,
2013-10-31 05:00:00,62.5,59.5,30.14,North,0,0.0,0.0,90,0.00,CLR,,0.00,WeatherDisplay:10.37,2013-10-31 09:00:00,
2013-10-31 05:01:00,61.9,58.9,30.14,North,0,0.0,0.0,90,0.00,CLR,,0.00,WeatherDisplay:10.37,2013-10-31 09:01:00,
2013-10-31 05:02:00,62.0,59.0,30.14,North,0,0.0,0.0,90,0.00,CLR,,0.00,WeatherDisplay:10.37,2013-10-31 09:02:00,
2013-10-31 05:03:00,62.2,59.2,30.14,North,0,0.0,0.0,90,0.00,CLR,,0.00,WeatherDisplay:10.37,2013-10-31 09:03:00,
2013-10-31 05:04:00,62.2,59.2,30.14,North,0,0.0,0.0,90,0.00,CLR,,0.00,WeatherDisplay:10.37,2013-10-31 09:04:00,
2013-10-31 05:05:00,62.4,59.4,30.14,North,0,0.0,0.0,90,0.00,CLR,,0.00,WeatherDisplay:10.37,2013-10-31 09:05:00,
2013-10-31 05:06:00,62.2,59.2,30.14,North,0,0.0,0.0,90,0.00,CLR,,0.00,WeatherDisplay:10.37,2013-10-31 09:06:00,
2013-10-31 05:07:00,61.9,58.9,30.14,North,0,0.0,0.0,90,0.00,CLR,,0.00,WeatherDisplay:10.37,2013-10-31 09:07:00,
2013-10-31 05:08:00,62.0,59.0,30.14,North,0,0.0,0.0,90,0.00,CLR,,0.00,WeatherDisplay:10.37,2013-10-31 09:08:00,
2013-10-31 05:09:00,62.1,59.1,30.14,North,0,0.0,0.0,90,0.00,CLR,,0.00,WeatherDisplay:10.37,2013-10-31 09:09:00,
2013-10-31 05:10:00,61.8,58.8,30.14,North,0,0.0,0.0,90,0.00,CLR,,0.00,WeatherDisplay:10.37,2013-10-31 09:10:00,
2013-10-31 05:11:00,61.7,58.7,30.14,North,0,0.0,0.0,90,0.00,CLR,,0.00,WeatherDisplay:10.37,2013-10-31 09:11:00,
2013-10-31 05:12:00,61.5,58.5,30.14,North,0,0.0,0.0,90,0.00,CLR,,0.00,WeatherDisplay:10.37,2013-10-31 09:12:00,
2013-10-31 05:14:00,61.5,58.5,30.14,North,0,0.0,0.0,90,0.00,CLR,,0.00,WeatherDisplay:10.37,2013-10-31 09:14:00,
2013-10-31 05:15:00,61.8,58.8,30.14,North,0,0.0,0.0,90,0.00,CLR,,0.00,WeatherDisplay:10.37,2013-10-31 09:15:00,
2013-10-31 05:16:00,62.0,59.0,30.14,North,0,0.0,0.0,90,0.00,CLR,,0.00,WeatherDisplay:10.37,2013-10-31 09:16:00,
2013-10-31 05:17:00,61.9,58.9,30.14,North,0,0.0,0.0,90,0.00,CLR,,0.00,WeatherDisplay:10.37,2013-10-31 09:17:00,
2013-10-31 05:18:00,62.0,59.0,30.14,North,0,0.0,0.0,90,0.00,CLR,,0.00,WeatherDisplay:10.37,2013-10-31 09:18:00,
2013-10-31 05:19:00,62.0,59.0,30.14,North,0,0.0,0.0,90,0.00,CLR,,0.00,WeatherDisplay:10.37,2013-10-31 09:19:00,
2013-10-31 05:20:00,62.0,59.0,30.14,North,0,0.0,0.0,90,0.00,CLR,,0.00,WeatherDisplay:10.37,2013-10-31 09:20:00,
2013-10-31 05:21:00,61.9,58.9,30.14,North,0,0.0,0.0,90,0.00,CLR,,0.00,WeatherDisplay:10.37,2013-10-31 09:21:00,
2013-10-31 05:23:00,62.1,59.1,30.14,North,0,0.0,0.0,90,0.00,CLR,,0.00,WeatherDisplay:10.37,2013-10-31 09:23:00,
2013-10-31 05:24:00,61.4,58.4,30.14,North,0,0.0,0.0,90,0.00,CLR,,0.00,WeatherDisplay:10.37,2013-10-31 09:24:00,
2013-10-31 05:25:00,61.9,58.9,30.14,North,0,0.0,0.0,90,0.00,CLR,,0.00,WeatherDisplay:10.37,2013-10-31 09:25:00,
2013-10-31 05:26:00,61.7,58.7,30.14,North,0,0.0,0.0,90,0.00,CLR,,0.00,WeatherDisplay:10.37,2013-10-31 09:26:00,
2013-10-31 05:28:00,61.5,58.5,30.14,North,0,0.0,0.0,90,0.00,CLR,,0.00,WeatherDisplay:10.37,2013-10-31 09:28:00,
2013-10-31 05:29:00,61.6,58.6,30.14,North,0,0.0,0.0,90,0.00,CLR,,0.00,WeatherDisplay:10.37,2013-10-31 09:29:00,
2013-10-31 05:30:00,61.5,58.5,30.14,North,0,0.0,0.0,90,0.00,CLR,,0.00,WeatherDisplay:10.37,2013-10-31 09:30:00,
2013-10-31 05:31:00,61.5,58.5,30.14,North,0,0.0,0.0,90,0.00,CLR,,0.00,WeatherDisplay:10.37,2013-10-31 09:31:00,
2013-10-31 05:33:00,61.7,58.7,30.14,North,0,0.0,0.0,90,0.00,CLR,,0.00,WeatherDisplay:10.37,2013-10-31 09:33:00,
2013-10-31 05:34:00,61.4,58.4,30.14,North,0,0.0,0.0,90,0.00,CLR,,0.00,WeatherDisplay:10.37,2013-10-31 09:34:00,
2013-10-31 05:35:00,61.5,58.5,30.14,North,0,0.0,0.0,90,0.00,CLR,,0.00,WeatherDisplay:10.37,2013-10-31 09:35:00,
2013-10-31 05:36:00,61.3,58.3,30.14,North,0,0.0,0.0,90,0.00,CLR,,0.00,WeatherDisplay:10.37,2013-10-31 09:36:00,
2013-10-31 05:38:00,61.3,58.3,30.14,North,0,0.0,0.0,90,0.00,CLR,,0.00,WeatherDisplay:10.37,2013-10-31 09:38:00,
2013-10-31 05:39:00,61.1,58.1,30.14,North,0,0.0,0.0,90,0.00,CLR,,0.00,WeatherDisplay:10.37,2013-10-31 09:39:00,
2013-10-31 05:40:00,61.5,58.5,30.14,North,0,0.0,0.0,90,0.00,CLR,,0.00,WeatherDisplay:10.37,2013-10-31 09:40:00,
2013-10-31 05:42:00,61.7,58.7,30.14,North,0,0.0,0.0,90,0.00,CLR,,0.00,WeatherDisplay:10.37,2013-10-31 09:42:00,
2013-10-31 05:44:00,61.5,58.5,30.14,North,0,0.0,0.0,90,0.00,CLR,,0.00,WeatherDisplay:10.37,2013-10-31 09:44:00,
2013-10-31 05:45:00,61.2,58.2,30.15,North,0,0.0,0.0,90,0.00,CLR,,0.00,WeatherDisplay:10.37,2013-10-31 09:45:00,
2013-10-31 05:47:00,61.4,58.4,30.15,North,0,0.0,0.0,90,0.00,CLR,,0.00,WeatherDisplay:10.37,2013-10-31 09:47:00,
2013-10-31 05:48:00,61.2,58.6,30.15,North,0,0.0,0.0,91,0.00,CLR,,0.00,WeatherDisplay:10.37,2013-10-31 09:48:00,
2013-10-31 05:49:00,61.5,58.8,30.15,North,0,0.0,0.0,91,0.00,CLR,,0.00,WeatherDisplay:10.37,2013-10-31 09:49:00,
2013-10-31 05:50:00,61.4,58.7,30.15,North,0,0.0,0.0,91,0.00,CLR,,0.00,WeatherDisplay:10.37,2013-10-31 09:50:00,
2013-10-31 05:52:00,60.8,58.2,30.15,North,0,0.0,0.0,91,0.00,CLR,,0.00,WeatherDisplay:10.37,2013-10-31 09:52:00,
2013-10-31 05:54:00,61.1,58.5,30.15,North,0,0.0,0.0,91,0.00,CLR,,0.00,WeatherDisplay:10.37,2013-10-31 09:54:00,
2013-10-31 05:55:00,61.2,58.6,30.15,North,0,0.0,0.0,91,0.00,CLR,,0.00,WeatherDisplay:10.37,2013-10-31 09:55:00,
2013-10-31 05:56:00,61.4,58.7,30.15,North,0,0.0,0.0,91,0.00,CLR,,0.00,WeatherDisplay:10.37,2013-10-31 09:56:00,
2013-10-31 05:57:00,60.7,58.1,30.15,North,0,0.0,0.0,91,0.00,CLR,,0.00,WeatherDisplay:10.37,2013-10-31 09:57:00,
2013-10-31 05:59:00,60.7,58.1,30.15,North,0,0.0,0.0,91,0.00,CLR,,0.00,WeatherDisplay:10.37,2013-10-31 09:59:00,
2013-10-31 06:00:00,61.5,58.8,30.15,North,0,0.0,0.0,91,0.00,CLR,,0.00,WeatherDisplay:10.37,2013-10-31 10:00:00,
2013-10-31 06:01:00,61.2,58.6,30.15,North,0,0.0,0.0,91,0.00,CLR,,0.00,WeatherDisplay:10.37,2013-10-31 10:01:00,
2013-10-31 06:03:00,61.4,58.7,30.15,North,0,0.0,0.0,91,0.00,CLR,,0.00,WeatherDisplay:10.37,2013-10-31 10:03:00,
2013-10-31 06:04:00,61.3,58.7,30.15,North,0,0.0,0.0,91,0.00,CLR,,0.00,WeatherDisplay:10.37,2013-10-31 10:04:00,
2013-10-31 06:05:00,61.0,58.4,30.15,North,0,0.0,0.0,91,0.00,CLR,,0.00,WeatherDisplay:10.37,2013-10-31 10:05:00,
2013-10-31 06:07:00,61.4,58.7,30.15,North,0,0.0,0.0,91,0.00,CLR,,0.00,WeatherDisplay:10.37,2013-10-31 10:07:00,
2013-10-31 06:08:00,61.4,58.7,30.15,North,0,0.0,0.0,91,0.00,CLR,,0.00,WeatherDisplay:10.37,2013-10-31 10:08:00,
2013-10-31 06:10:00,60.8,58.2,30.15,North,0,0.0,0.0,91,0.00,CLR,,0.00,WeatherDisplay:10.37,2013-10-31 10:10:00,
2013-10-31 06:12:00,60.6,58.0,30.15,North,0,0.0,0.0,91,0.00,CLR,,0.00,WeatherDisplay:10.37,2013-10-31 10:12:00,
2013-10-31 06:13:00,61.2,58.6,30.15,North,0,0.0,0.0,91,0.00,CLR,,0.00,WeatherDisplay:10.37,2013-10-31 10:13:00,
2013-10-31 06:15:00,61.0,58.4,30.15,North,0,0.0,0.0,91,0.00,CLR,,0.00,WeatherDisplay:10.37,2013-10-31 10:15:00,
2013-10-31 06:17:00,61.1,58.5,30.15,North,0,0.0,0.0,91,0.00,CLR,,0.00,WeatherDisplay:10.37,2013-10-31 10:17:00,
2013-10-31 06:18:00,60.5,57.9,30.15,North,0,0.0,0.0,91,0.00,CLR,,0.00,WeatherDisplay:10.37,2013-10-31 10:18:00,
2013-10-31 06:20:00,61.0,58.4,30.15,North,0,0.0,0.0,91,0.00,CLR,,0.00,WeatherDisplay:10.37,2013-10-31 10:20:00,
2013-10-31 06:21:00,61.1,58.5,30.15,North,0,0.0,0.0,91,0.00,CLR,,0.00,WeatherDisplay:10.37,2013-10-31 10:21:00,
2013-10-31 06:22:00,60.8,58.2,30.14,North,0,0.0,0.0,91,0.00,CLR,,0.00,WeatherDisplay:10.37,2013-10-31 10:22:00,
2013-10-31 06:23:00,60.5,57.9,30.14,North,0,0.0,0.0,91,0.00,CLR,,0.00,WeatherDisplay:10.37,2013-10-31 10:23:00,
2013-10-31 06:24:00,61.0,58.4,30.14,North,0,0.0,0.0,91,0.00,CLR,,0.00,WeatherDisplay:10.37,2013-10-31 10:24:00,
2013-10-31 06:25:00,60.9,58.3,30.14,North,0,0.0,0.0,91,0.00,CLR,,0.00,WeatherDisplay:10.37,2013-10-31 10:25:00,
2013-10-31 06:26:00,60.7,58.1,30.14,North,0,0.0,0.0,91,0.00,CLR,,0.00,WeatherDisplay:10.37,2013-10-31 10:26:00,
2013-10-31 06:28:00,61.0,58.4,30.14,North,0,0.0,0.0,91,0.00,CLR,,0.00,WeatherDisplay:10.37,2013-10-31 10:28:00,
2013-10-31 06:29:00,61.0,58.4,30.14,North,0,0.0,0.0,91,0.00,CLR,,0.00,WeatherDisplay:10.37,2013-10-31 10:29:00,
2013-10-31 06:31:00,60.4,57.8,30.14,North,0,0.0,0.0,91,0.00,CLR,,0.00,WeatherDisplay:10.37,2013-10-31 10:31:00,
2013-10-31 06:33:00,60.9,58.3,30.14,North,0,0.0,0.0,91,0.00,CLR,,0.00,WeatherDisplay:10.37,2013-10-31 10:33:00,
2013-10-31 06:34:00,60.6,58.0,30.14,North,0,0.0,0.0,91,0.00,CLR,,0.00,WeatherDisplay:10.37,2013-10-31 10:34:00,
2013-10-31 06:36:00,60.8,58.2,30.14,North,0,0.0,0.0,91,0.00,CLR,,0.00,WeatherDisplay:10.37,2013-10-31 10:36:00,
2013-10-31 06:39:00,60.4,57.8,30.14,North,0,0.0,0.0,91,0.00,CLR,,0.00,WeatherDisplay:10.37,2013-10-31 10:39:00,
2013-10-31 06:40:00,60.5,57.9,30.14,North,0,0.0,0.0,91,0.00,CLR,,0.00,WeatherDisplay:10.37,2013-10-31 10:40:00,
2013-10-31 06:41:00,60.5,57.9,30.14,North,0,0.0,0.0,91,0.00,CLR,,0.00,WeatherDisplay:10.37,2013-10-31 10:41:00,
2013-10-31 06:44:00,60.9,58.3,30.14,North,0,0.0,0.0,91,0.00,CLR,,0.00,WeatherDisplay:10.37,2013-10-31 10:44:00,
2013-10-31 06:45:00,60.5,57.9,30.14,North,0,0.0,0.0,91,0.00,CLR,,0.00,WeatherDisplay:10.37,2013-10-31 10:45:00,
2013-10-31 06:46:00,60.3,57.7,30.14,North,0,0.0,0.0,91,0.00,CLR,,0.00,WeatherDisplay:10.37,2013-10-31 10:46:00,
2013-10-31 06:49:00,60.7,58.4,30.14,North,0,0.0,0.0,92,0.00,CLR,,0.00,WeatherDisplay:10.37,2013-10-31 10:49:00,
2013-10-31 06:50:00,61.0,58.4,30.14,North,0,0.0,0.0,91,0.00,CLR,,0.00,WeatherDisplay:10.37,2013-10-31 10:50:00,
2013-10-31 06:51:00,60.8,58.2,30.14,North,0,0.0,0.0,91,0.00,CLR,,0.00,WeatherDisplay:10.37,2013-10-31 10:51:00,
2013-10-31 06:54:00,60.7,58.1,30.15,North,0,0.0,0.0,91,0.00,CLR,,0.00,WeatherDisplay:10.37,2013-10-31 10:54:00,
2013-10-31 06:55:00,60.5,57.9,30.14,North,0,0.0,0.0,91,0.00,CLR,,0.00,WeatherDisplay:10.37,2013-10-31 10:55:00,
2013-10-31 06:56:00,60.8,58.2,30.14,North,0,0.0,0.0,91,0.00,CLR,,0.00,WeatherDisplay:10.37,2013-10-31 10:56:00,
2013-10-31 06:59:00,61.1,58.5,30.14,North,0,0.0,0.0,91,0.00,CLR,,0.00,WeatherDisplay:10.37,2013-10-31 10:59:00,
2013-10-31 07:00:00,61.3,58.7,30.14,North,0,0.0,0.0,91,0.00,CLR,,0.00,WeatherDisplay:10.37,2013-10-31 11:00:00,
2013-10-31 07:01:00,60.6,58.3,30.14,North,0,0.0,0.0,92,0.00,CLR,,0.00,WeatherDisplay:10.37,2013-10-31 11:01:00,
2013-10-31 07:05:00,60.7,58.4,30.14,North,0,0.0,0.0,92,0.00,CLR,,0.00,WeatherDisplay:10.37,2013-10-31 11:05:00,
2013-10-31 07:07:00,61.1,58.8,30.14,North,0,0.0,0.0,92,0.00,CLR,,0.00,WeatherDisplay:10.37,2013-10-31 11:07:00,
2013-10-31 07:10:00,60.6,58.3,30.14,North,0,0.0,0.0,92,0.00,CLR,,0.00,WeatherDisplay:10.37,2013-10-31 11:10:00,
2013-10-31 07:11:00,60.6,58.3,30.14,North,0,0.0,0.0,92,0.00,CLR,,0.00,WeatherDisplay:10.37,2013-10-31 11:11:00,
2013-10-31 07:12:00,60.8,58.5,30.14,North,0,0.0,0.0,92,0.00,CLR,,0.00,WeatherDisplay:10.37,2013-10-31 11:12:00,
2013-10-31 07:15:00,60.9,58.6,30.14,North,0,0.0,0.0,92,0.00,CLR,,0.00,WeatherDisplay:10.37,2013-10-31 11:15:00,
2013-10-31 07:16:00,60.4,58.1,30.14,North,0,0.0,0.0,92,0.00,CLR,,0.00,WeatherDisplay:10.37,2013-10-31 11:16:00,
2013-10-31 07:17:00,60.5,58.2,30.14,North,0,0.0,0.0,92,0.00,CLR,,0.00,WeatherDisplay:10.37,2013-10-31 11:17:00,
2013-10-31 07:18:00,60.9,58.6,30.13,North,0,0.0,0.0,92,0.00,CLR,,0.00,WeatherDisplay:10.37,2013-10-31 11:18:00,
2013-10-31 07:20:00,61.1,58.8,30.13,North,0,0.0,0.0,92,0.00,CLR,,0.00,WeatherDisplay:10.37,2013-10-31 11:20:00,
2013-10-31 07:21:00,60.5,58.2,30.13,North,0,0.0,0.0,92,0.00,CLR,,0.00,WeatherDisplay:10.37,2013-10-31 11:21:00,
2013-10-31 07:22:00,60.9,58.6,30.13,North,0,0.0,0.0,92,0.00,CLR,,0.00,WeatherDisplay:10.37,2013-10-31 11:22:00,
2013-10-31 07:23:00,60.7,58.4,30.13,North,0,0.0,0.0,92,0.00,CLR,,0.00,WeatherDisplay:10.37,2013-10-31 11:23:00,
2013-10-31 07:25:00,60.7,58.4,30.13,North,0,0.0,0.0,92,0.00,CLR,,0.00,WeatherDisplay:10.37,2013-10-31 11:25:00,
2013-10-31 07:26:00,61.1,58.8,30.14,North,0,0.0,0.0,92,0.00,CLR,,0.00,WeatherDisplay:10.37,2013-10-31 11:26:00,
2013-10-31 07:27:00,61.0,58.7,30.14,North,0,0.0,0.0,92,0.00,CLR,,0.00,WeatherDisplay:10.37,2013-10-31 11:27:00,
2013-10-31 07:28:00,60.8,58.5,30.14,North,0,0.0,0.0,92,0.00,CLR,,0.00,WeatherDisplay:10.37,2013-10-31 11:28:00,
2013-10-31 07:30:00,60.5,58.2,30.13,North,0,0.0,0.0,92,0.00,CLR,,0.00,WeatherDisplay:10.37,2013-10-31 11:30:00,
2013-10-31 07:31:00,60.8,58.5,30.13,North,0,0.0,0.0,92,0.00,CLR,,0.00,WeatherDisplay:10.37,2013-10-31 11:31:00,
2013-10-31 07:32:00,60.6,58.3,30.13,North,0,0.0,0.0,92,0.00,CLR,,0.00,WeatherDisplay:10.37,2013-10-31 11:32:00,
2013-10-31 07:33:00,60.5,58.2,30.13,North,0,0.0,0.0,92,0.00,CLR,,0.00,WeatherDisplay:10.37,2013-10-31 11:33:00,
2013-10-31 07:35:00,60.7,58.4,30.13,North,0,0.0,0.0,92,0.00,CLR,,0.00,WeatherDisplay:10.37,2013-10-31 11:35:00,
2013-10-31 07:36:00,60.5,58.2,30.13,North,0,0.0,0.0,92,0.00,CLR,,0.00,WeatherDisplay:10.37,2013-10-31 11:36:00,
2013-10-31 07:37:00,60.3,58.0,30.13,North,0,0.0,0.0,92,0.00,CLR,,0.00,WeatherDisplay:10.37,2013-10-31 11:37:00,
2013-10-31 07:38:00,60.5,58.2,30.13,North,0,0.0,0.0,92,0.00,CLR,,0.00,WeatherDisplay:10.37,2013-10-31 11:38:00,
2013-10-31 07:40:00,60.5,58.2,30.14,North,0,0.0,0.0,92,0.00,CLR,,0.00,WeatherDisplay:10.37,2013-10-31 11:40:00,
2013-10-31 07:41:00,60.3,58.0,30.14,North,0,0.0,0.0,92,0.00,CLR,,0.00,WeatherDisplay:10.37,2013-10-31 11:41:00,
2013-10-31 07:42:00,60.3,58.0,30.14,North,0,0.0,0.0,92,0.00,CLR,,0.00,WeatherDisplay:10.37,2013-10-31 11:42:00,
2013-10-31 07:43:00,60.5,58.2,30.14,North,0,0.0,0.0,92,0.00,CLR,,0.00,WeatherDisplay:10.37,2013-10-31 11:43:00,
2013-10-31 07:46:00,60.5,58.2,30.14,North,0,0.0,0.0,92,0.00,CLR,,0.00,WeatherDisplay:10.37,2013-10-31 11:46:00,
2013-10-31 07:47:00,60.6,58.3,30.14,North,0,0.0,0.0,92,0.00,CLR,,0.00,WeatherDisplay:10.37,2013-10-31 11:47:00,
2013-10-31 07:48:00,60.8,58.5,30.14,North,0,0.0,0.0,92,0.00,CLR,,0.00,WeatherDisplay:10.37,2013-10-31 11:48:00,
2013-10-31 07:49:00,60.5,58.2,30.14,North,0,0.0,0.0,92,0.00,CLR,,0.00,WeatherDisplay:10.37,2013-10-31 11:49:00,
2013-10-31 07:51:00,60.7,58.4,30.14,North,0,0.0,0.0,92,0.00,CLR,,0.00,WeatherDisplay:10.37,2013-10-31 11:51:00,
2013-10-31 07:52:00,60.4,58.1,30.14,North,0,0.0,0.0,92,0.00,CLR,,0.00,WeatherDisplay:10.37,2013-10-31 11:52:00,
2013-10-31 07:53:00,60.7,58.4,30.14,North,0,0.0,0.0,92,0.00,CLR,,0.00,WeatherDisplay:10.37,2013-10-31 11:53:00,
2013-10-31 07:54:00,60.5,58.2,30.14,North,0,0.0,0.0,92,0.00,CLR,,0.00,WeatherDisplay:10.37,2013-10-31 11:54:00,
2013-10-31 07:56:00,60.5,58.2,30.14,North,0,0.0,0.0,92,0.00,CLR,,0.00,WeatherDisplay:10.37,2013-10-31 11:56:00,
2013-10-31 07:57:00,60.3,58.0,30.14,North,0,0.0,0.0,92,0.00,CLR,,0.00,WeatherDisplay:10.37,2013-10-31 11:57:00,
2013-10-31 07:58:00,60.4,58.1,30.14,North,0,0.0,0.0,92,0.00,CLR,,0.00,WeatherDisplay:10.37,2013-10-31 11:58:00,
2013-10-31 07:59:00,60.4,58.1,30.14,North,0,0.0,0.0,92,0.00,CLR,,0.00,WeatherDisplay:10.37,2013-10-31 11:59:00,
2013-10-31 08:01:00,60.4,58.1,30.14,North,0,0.0,0.0,92,0.00,CLR,,0.00,WeatherDisplay:10.37,2013-10-31 12:01:00,
2013-10-31 08:02:00,60.4,58.1,30.14,North,0,0.0,0.0,92,0.00,CLR,,0.00,WeatherDisplay:10.37,2013-10-31 12:02:00,
2013-10-31 08:03:00,60.4,58.1,30.14,North,0,0.0,0.0,92,0.00,CLR,,0.00,WeatherDisplay:10.37,2013-10-31 12:03:00,
2013-10-31 08:04:00,60.6,58.3,30.14,North,0,0.0,0.0,92,0.00,CLR,,0.00,WeatherDisplay:10.37,2013-10-31 12:04:00,
2013-10-31 08:06:00,60.3,58.0,30.14,North,0,0.0,0.0,92,0.00,CLR,,0.00,WeatherDisplay:10.37,2013-10-31 12:06:00,
2013-10-31 08:07:00,60.5,58.2,30.14,North,0,0.0,0.0,92,0.00,CLR,,0.00,WeatherDisplay:10.37,2013-10-31 12:07:00,
2013-10-31 08:08:00,60.5,58.2,30.14,North,0,0.0,0.0,92,0.00,CLR,,0.00,WeatherDisplay:10.37,2013-10-31 12:08:00,
2013-10-31 08:09:00,60.6,58.3,30.14,North,0,0.0,0.0,92,0.00,CLR,,0.00,WeatherDisplay:10.37,2013-10-31 12:09:00,
2013-10-31 08:10:00,60.1,57.8,30.14,North,0,0.0,0.0,92,0.00,CLR,,0.00,WeatherDisplay:10.37,2013-10-31 12:10:00,
2013-10-31 08:11:00,60.4,58.1,30.14,North,0,0.0,0.0,92,0.00,CLR,,0.00,WeatherDisplay:10.37,2013-10-31 12:11:00,
2013-10-31 08:13:00,60.7,58.4,30.14,North,0,0.0,0.0,92,0.00,CLR,,0.00,WeatherDisplay:10.37,2013-10-31 12:13:00,
2013-10-31 08:14:00,60.5,58.5,30.14,North,0,0.0,0.0,93,0.00,CLR,,0.00,WeatherDisplay:10.37,2013-10-31 12:14:00,
2013-10-31 08:15:00,60.3,58.3,30.14,North,0,0.0,0.0,93,0.00,CLR,,0.00,WeatherDisplay:10.37,2013-10-31 12:15:00,
2013-10-31 08:16:00,60.5,58.5,30.14,North,0,0.0,0.0,93,0.00,CLR,,0.00,WeatherDisplay:10.37,2013-10-31 12:16:00,
2013-10-31 08:18:00,60.6,58.6,30.14,North,0,0.0,0.0,93,0.00,CLR,,0.00,WeatherDisplay:10.37,2013-10-31 12:18:00,
2013-10-31 08:19:00,60.5,58.5,30.14,North,0,0.0,0.0,93,0.00,CLR,,0.00,WeatherDisplay:10.37,2013-10-31 12:19:00,
2013-10-31 08:20:00,60.4,58.4,30.14,North,0,0.0,0.0,93,0.00,CLR,,0.00,WeatherDisplay:10.37,2013-10-31 12:20:00,
2013-10-31 08:21:00,60.9,58.6,30.14,North,0,0.0,0.0,92,0.00,CLR,,0.00,WeatherDisplay:10.37,2013-10-31 12:21:00,
2013-10-31 08:23:00,60.8,58.5,30.14,North,0,0.0,0.0,92,0.00,CLR,,0.00,WeatherDisplay:10.37,2013-10-31 12:23:00,
2013-10-31 08:25:00,61.1,59.1,30.14,North,0,0.0,0.0,93,0.00,CLR,,0.00,WeatherDisplay:10.37,2013-10-31 12:25:00,
2013-10-31 08:26:00,61.1,59.1,30.14,North,0,0.0,0.0,93,0.00,CLR,,0.00,WeatherDisplay:10.37,2013-10-31 12:26:00,
2013-10-31 08:27:00,60.5,58.5,30.14,North,0,0.0,0.0,93,0.00,CLR,,0.00,WeatherDisplay:10.37,2013-10-31 12:27:00,
2013-10-31 08:28:00,61.1,59.1,30.14,North,0,0.0,0.0,93,0.00,CLR,,0.00,WeatherDisplay:10.37,2013-10-31 12:28:00,
2013-10-31 08:30:00,60.6,58.6,30.14,North,0,0.0,0.0,93,0.00,CLR,,0.00,WeatherDisplay:10.37,2013-10-31 12:30:00,
2013-10-31 08:32:00,61.2,59.2,30.14,North,0,0.0,0.0,93,0.00,CLR,,0.00,WeatherDisplay:10.37,2013-10-31 12:32:00,
2013-10-31 08:33:00,61.3,59.3,30.14,North,0,0.0,0.0,93,0.00,CLR,,0.00,WeatherDisplay:10.37,2013-10-31 12:33:00,
2013-10-31 08:35:00,61.3,59.3,30.13,North,0,0.0,0.0,93,0.00,CLR,,0.00,WeatherDisplay:10.37,2013-10-31 12:35:00,
2013-10-31 08:37:00,61.4,59.4,30.13,North,0,0.0,0.0,93,0.00,CLR,,0.00,WeatherDisplay:10.37,2013-10-31 12:37:00,
2013-10-31 08:38:00,61.3,59.3,30.13,North,0,0.0,0.0,93,0.00,CLR,,0.00,WeatherDisplay:10.37,2013-10-31 12:38:00,
2013-10-31 08:40:00,61.4,59.4,30.13,North,0,0.0,0.0,93,0.00,CLR,,0.00,WeatherDisplay:10.37,2013-10-31 12:40:00,
2013-10-31 08:41:00,61.7,59.7,30.13,North,0,0.0,0.0,93,0.00,CLR,,0.00,WeatherDisplay:10.37,2013-10-31 12:41:00,
2013-10-31 08:42:00,61.7,59.7,30.13,North,0,0.0,0.0,93,0.00,CLR,,0.00,WeatherDisplay:10.37,2013-10-31 12:42:00,
2013-10-31 08:43:00,60.5,58.5,30.14,North,0,0.0,0.0,93,0.00,CLR,,0.00,WeatherDisplay:10.37,2013-10-31 12:43:00,
2013-10-31 08:45:00,61.2,59.2,30.14,North,0,0.0,0.0,93,0.00,CLR,,0.00,WeatherDisplay:10.37,2013-10-31 12:45:00,
2013-10-31 08:46:00,61.3,59.3,30.14,North,0,0.0,0.0,93,0.00,CLR,,0.00,WeatherDisplay:10.37,2013-10-31 12:46:00,
2013-10-31 08:47:00,60.9,58.9,30.14,North,0,0.0,0.0,93,0.00,CLR,,0.00,WeatherDisplay:10.37,2013-10-31 12:47:00,
2013-10-31 08:48:00,61.2,59.2,30.14,North,0,0.0,0.0,93,0.00,CLR,,0.00,WeatherDisplay:10.37,2013-10-31 12:48:00,
2013-10-31 08:50:00,61.4,59.4,30.14,North,0,0.0,0.0,93,0.00,CLR,,0.00,WeatherDisplay:10.37,2013-10-31 12:50:00,
2013-10-31 08:51:00,61.1,59.1,30.14,North,0,0.0,0.0,93,0.00,CLR,,0.00,WeatherDisplay:10.37,2013-10-31 12:51:00,
2013-10-31 08:53:00,61.4,59.4,30.14,North,0,0.0,0.0,93,0.00,CLR,,0.00,WeatherDisplay:10.37,2013-10-31 12:53:00,
2013-10-31 08:54:00,61.5,59.5,30.14,North,0,0.0,0.0,93,0.00,CLR,,0.00,WeatherDisplay:10.37,2013-10-31 12:54:00,
2013-10-31 08:55:00,61.3,59.3,30.14,North,0,0.0,0.0,93,0.00,CLR,,0.00,WeatherDisplay:10.37,2013-10-31 12:55:00,
2013-10-31 08:57:00,61.3,59.3,30.14,North,0,0.0,0.0,93,0.00,CLR,,0.00,WeatherDisplay:10.37,2013-10-31 12:57:00,
2013-10-31 08:58:00,61.9,59.9,30.14,North,0,0.0,0.0,93,0.00,CLR,,0.00,WeatherDisplay:10.37,2013-10-31 12:58:00,
2013-10-31 08:59:00,61.2,59.2,30.14,North,0,0.0,0.0,93,0.00,CLR,,0.00,WeatherDisplay:10.37,2013-10-31 12:59:00,
2013-10-31 09:00:00,61.9,59.9,30.14,North,0,0.0,0.0,93,0.00,CLR,,0.00,WeatherDisplay:10.37,2013-10-31 13:00:00,
2013-10-31 09:01:00,61.7,59.7,30.14,North,0,0.0,0.0,93,0.00,CLR,,0.00,WeatherDisplay:10.37,2013-10-31 13:01:00,
2013-10-31 09:02:00,61.7,59.7,30.14,North,0,0.0,0.0,93,0.00,CLR,,0.00,WeatherDisplay:10.37,2013-10-31 13:02:00,
2013-10-31 09:04:00,62.2,59.8,30.14,North,0,0.0,0.0,92,0.00,CLR,,0.00,WeatherDisplay:10.37,2013-10-31 13:04:00,
2013-10-31 09:05:00,62.2,59.8,30.14,North,0,0.0,0.0,92,0.00,CLR,,0.00,WeatherDisplay:10.37,2013-10-31 13:05:00,
2013-10-31 09:07:00,61.6,59.3,30.14,North,0,0.0,0.0,92,0.00,CLR,,0.00,WeatherDisplay:10.37,2013-10-31 13:07:00,
2013-10-31 09:09:00,61.9,59.5,30.14,North,0,0.0,0.0,92,0.00,CLR,,0.00,WeatherDisplay:10.37,2013-10-31 13:09:00,
2013-10-31 09:10:00,61.5,59.2,30.14,North,0,0.0,0.0,92,0.00,CLR,,0.00,WeatherDisplay:10.37,2013-10-31 13:10:00,
2013-10-31 09:12:00,61.8,59.5,30.14,North,0,0.0,0.0,92,0.00,CLR,,0.00,WeatherDisplay:10.37,2013-10-31 13:12:00,
2013-10-31 09:15:00,61.8,59.5,30.14,North,0,0.0,0.0,92,0.00,CLR,,0.00,WeatherDisplay:10.37,2013-10-31 13:15:00,
2013-10-31 09:16:00,62.0,59.6,30.14,North,0,0.0,0.0,92,0.00,CLR,,0.00,WeatherDisplay:10.37,2013-10-31 13:16:00,
2013-10-31 09:17:00,62.1,59.7,30.14,North,0,0.0,0.0,92,0.00,CLR,,0.00,WeatherDisplay:10.37,2013-10-31 13:17:00,
2013-10-31 09:18:00,62.2,59.8,30.14,North,0,0.0,0.0,92,0.00,CLR,,0.00,WeatherDisplay:10.37,2013-10-31 13:18:00,
2013-10-31 09:20:00,62.3,59.9,30.14,North,0,0.0,0.0,92,0.00,CLR,,0.00,WeatherDisplay:10.37,2013-10-31 13:20:00,
2013-10-31 09:21:00,62.1,59.7,30.14,North,0,0.0,0.0,92,0.00,CLR,,0.00,WeatherDisplay:10.37,2013-10-31 13:21:00,
2013-10-31 09:23:00,61.8,59.5,30.15,North,0,0.0,0.0,92,0.00,CLR,,0.00,WeatherDisplay:10.37,2013-10-31 13:23:00,
2013-10-31 09:24:00,62.4,60.0,30.15,North,0,0.0,0.0,92,0.00,CLR,,0.00,WeatherDisplay:10.37,2013-10-31 13:24:00,
2013-10-31 09:26:00,62.5,60.1,30.15,North,0,0.0,0.0,92,0.00,CLR,,0.00,WeatherDisplay:10.37,2013-10-31 13:26:00,
2013-10-31 09:28:00,62.5,60.1,30.15,North,0,0.0,0.0,92,0.00,CLR,,0.00,WeatherDisplay:10.37,2013-10-31 13:28:00,
2013-10-31 09:30:00,62.4,60.0,30.14,North,0,0.0,0.0,92,0.00,CLR,,0.00,WeatherDisplay:10.37,2013-10-31 13:30:00,
2013-10-31 09:31:00,62.6,60.2,30.15,North,0,0.0,0.0,92,0.00,CLR,,0.00,WeatherDisplay:10.37,2013-10-31 13:31:00,
2013-10-31 09:33:00,62.4,60.0,30.14,North,0,0.0,0.0,92,0.00,CLR,,0.00,WeatherDisplay:10.37,2013-10-31 13:33:00,
2013-10-31 09:35:00,62.8,60.4,30.15,North,0,0.0,0.0,92,0.00,CLR,,0.00,WeatherDisplay:10.37,2013-10-31 13:35:00,
2013-10-31 09:36:00,62.9,60.5,30.15,North,0,0.0,0.0,92,0.00,CLR,,0.00,WeatherDisplay:10.37,2013-10-31 13:36:00,
2013-10-31 09:37:00,63.1,60.7,30.15,North,0,0.0,0.0,92,0.00,CLR,,0.00,WeatherDisplay:10.37,2013-10-31 13:37:00,
2013-10-31 09:38:00,63.2,60.8,30.15,North,0,0.0,0.0,92,0.00,CLR,,0.00,WeatherDisplay:10.37,2013-10-31 13:38:00,
2013-10-31 09:39:00,63.1,60.7,30.15,North,0,0.0,0.0,92,0.00,CLR,,0.00,WeatherDisplay:10.37,2013-10-31 13:39:00,
2013-10-31 09:41:00,62.8,60.4,30.15,North,0,0.0,0.0,92,0.00,CLR,,0.00,WeatherDisplay:10.37,2013-10-31 13:41:00,
2013-10-31 09:42:00,63.2,60.8,30.15,North,0,0.0,0.0,92,0.00,CLR,,0.00,WeatherDisplay:10.37,2013-10-31 13:42:00,
2013-10-31 09:43:00,62.9,60.5,30.15,North,0,0.0,0.0,92,0.00,CLR,,0.00,WeatherDisplay:10.37,2013-10-31 13:43:00,
2013-10-31 09:44:00,62.9,60.5,30.15,North,0,0.0,0.0,92,0.00,CLR,,0.00,WeatherDisplay:10.37,2013-10-31 13:44:00,
2013-10-31 09:46:00,63.3,60.6,30.14,North,0,0.0,0.0,91,0.00,CLR,,0.00,WeatherDisplay:10.37,2013-10-31 13:46:00,
2013-10-31 09:47:00,63.2,60.5,30.14,North,0,0.0,0.0,91,0.00,CLR,,0.00,WeatherDisplay:10.37,2013-10-31 13:47:00,
2013-10-31 09:48:00,63.3,60.6,30.14,North,0,0.0,0.0,91,0.00,CLR,,0.00,WeatherDisplay:10.37,2013-10-31 13:48:00,
2013-10-31 09:49:00,63.7,61.0,30.14,North,0,0.0,0.0,91,0.00,CLR,,0.00,WeatherDisplay:10.37,2013-10-31 13:49:00,
2013-10-31 09:51:00,63.4,60.7,30.14,North,0,0.0,0.0,91,0.00,CLR,,0.00,WeatherDisplay:10.37,2013-10-31 13:51:00,
2013-10-31 09:52:00,64.2,61.5,30.14,North,0,0.0,0.0,91,0.00,CLR,,0.00,WeatherDisplay:10.37,2013-10-31 13:52:00,
2013-10-31 09:53:00,64.3,61.3,30.14,North,0,0.0,0.0,90,0.00,CLR,,0.00,WeatherDisplay:10.37,2013-10-31 13:53:00,
2013-10-31 09:55:00,64.3,61.3,30.14,North,0,0.0,0.0,90,0.00,CLR,,0.00,WeatherDisplay:10.37,2013-10-31 13:55:00,
2013-10-31 09:56:00,64.3,61.3,30.14,North,0,0.0,0.0,90,0.00,CLR,,0.00,WeatherDisplay:10.37,2013-10-31 13:56:00,
2013-10-31 09:57:00,63.8,60.8,30.14,North,0,0.0,0.0,90,0.00,CLR,,0.00,WeatherDisplay:10.37,2013-10-31 13:57:00,
2013-10-31 09:58:00,64.2,61.2,30.14,North,0,0.0,0.0,90,0.00,CLR,,0.00,WeatherDisplay:10.37,2013-10-31 13:58:00,
2013-10-31 10:00:00,64.6,61.6,30.14,North,0,0.0,0.0,90,0.00,CLR,,0.00,WeatherDisplay:10.37,2013-10-31 14:00:00,
2013-10-31 10:01:00,64.5,61.2,30.14,East,96,5.2,8.1,89,0.00,CLR,,0.00,WeatherDisplay:10.37,2013-10-31 14:01:00,
2013-10-31 10:02:00,64.7,61.4,30.14,East,93,4.6,8.1,89,0.00,CLR,,0.00,WeatherDisplay:10.37,2013-10-31 14:02:00,
2013-10-31 10:03:00,64.9,61.6,30.13,East,89,4.1,5.8,89,0.00,CLR,,0.00,WeatherDisplay:10.37,2013-10-31 14:03:00,
2013-10-31 10:05:00,64.7,61.4,30.13,East,95,1.6,6.9,89,0.00,CLR,,0.00,WeatherDisplay:10.37,2013-10-31 14:05:00,
2013-10-31 10:06:00,65.0,61.7,30.13,East,92,3.9,5.8,89,0.00,CLR,,0.00,WeatherDisplay:10.37,2013-10-31 14:06:00,
2013-10-31 10:07:00,64.9,61.6,30.13,ENE,76,4.4,5.8,89,0.00,CLR,,0.00,WeatherDisplay:10.37,2013-10-31 14:07:00,
2013-10-31 10:08:00,64.9,61.3,30.13,East,85,3.3,6.9,88,0.00,CLR,,0.00,WeatherDisplay:10.37,2013-10-31 14:08:00,
2013-10-31 10:10:00,64.6,61.0,30.13,East,82,5.1,9.2,88,0.00,CLR,,0.00,WeatherDisplay:10.37,2013-10-31 14:10:00,
2013-10-31 10:12:00,65.5,61.9,30.13,ENE,78,5.6,9.2,88,0.00,CLR,,0.00,WeatherDisplay:10.37,2013-10-31 14:12:00,
2013-10-31 10:13:00,65.1,61.1,30.13,East,92,2.3,5.8,87,0.00,CLR,,0.00,WeatherDisplay:10.37,2013-10-31 14:13:00,
2013-10-31 10:14:00,65.3,61.3,30.13,East,93,6.5,8.4,87,0.00,CLR,,0.00,WeatherDisplay:10.37,2013-10-31 14:14:00,
2013-10-31 10:15:00,65.2,61.2,30.13,ENE,73,6.6,8.1,87,0.00,CLR,,0.00,WeatherDisplay:10.37,2013-10-31 14:15:00,
2013-10-31 10:17:00,64.9,60.9,30.12,ENE,75,6.1,9.2,87,0.00,CLR,,0.00,WeatherDisplay:10.37,2013-10-31 14:17:00,
2013-10-31 10:18:00,65.7,61.7,30.12,East,92,0.8,4.6,87,0.00,CLR,,0.00,WeatherDisplay:10.37,2013-10-31 14:18:00,
2013-10-31 10:19:00,65.5,61.5,30.12,East,92,0.0,0.0,87,0.00,CLR,,0.00,WeatherDisplay:10.37,2013-10-31 14:19:00,
2013-10-31 10:20:00,65.8,61.5,30.12,NE,42,4.9,8.1,86,0.00,CLR,,0.00,WeatherDisplay:10.37,2013-10-31 14:20:00,
2013-10-31 10:22:00,65.6,61.3,30.12,ENE,66,3.5,6.5,86,0.00,CLR,,0.00,WeatherDisplay:10.37,2013-10-31 14:22:00,
2013-10-31 10:23:00,65.6,61.0,30.12,East,85,6.1,9.2,85,0.00,CLR,,0.00,WeatherDisplay:10.37,2013-10-31 14:23:00,
2013-10-31 10:24:00,65.8,61.2,30.12,East,85,5.3,8.1,85,0.00,CLR,,0.00,WeatherDisplay:10.37,2013-10-31 14:24:00,
2013-10-31 10:25:00,65.8,61.2,30.12,East,88,3.6,7.0,85,0.00,CLR,,0.00,WeatherDisplay:10.37,2013-10-31 14:25:00,
2013-10-31 10:26:00,65.4,60.8,30.12,ENE,72,5.6,8.1,85,0.00,CLR,,0.00,WeatherDisplay:10.37,2013-10-31 14:26:00,
2013-10-31 10:27:00,65.6,61.0,30.12,East,80,1.4,5.8,85,0.00,CLR,,0.00,WeatherDisplay:10.37,2013-10-31 14:27:00,
2013-10-31 10:28:00,65.7,61.1,30.12,East,80,0.0,3.5,85,0.00,CLR,,0.00,WeatherDisplay:10.37,2013-10-31 14:28:00,
2013-10-31 10:29:00,65.8,61.2,30.12,East,80,0.0,3.5,85,0.00,CLR,,0.00,WeatherDisplay:10.37,2013-10-31 14:29:00,
2013-10-31 10:31:00,66.0,61.4,30.12,ESE,116,4.8,8.1,85,0.00,CLR,,0.00,WeatherDisplay:10.37,2013-10-31 14:31:00,
2013-10-31 10:32:00,65.7,61.1,30.12,ESE,104,3.1,4.6,85,0.00,CLR,,0.00,WeatherDisplay:10.37,2013-10-31 14:32:00,
2013-10-31 10:33:00,65.7,61.1,30.12,East,83,2.7,4.6,85,0.00,CLR,,0.00,WeatherDisplay:10.37,2013-10-31 14:33:00,
2013-10-31 10:34:00,65.8,60.8,30.11,East,92,5.2,8.1,84,0.00,CLR,,0.00,WeatherDisplay:10.37,2013-10-31 14:34:00,
2013-10-31 10:36:00,66.2,61.2,30.11,East,86,3.4,5.8,84,0.00,CLR,,0.00,WeatherDisplay:10.37,2013-10-31 14:36:00,
2013-10-31 10:37:00,65.8,60.8,30.11,East,86,1.4,5.8,84,0.00,CLR,,0.00,WeatherDisplay:10.37,2013-10-31 14:37:00,
2013-10-31 10:38:00,66.0,61.0,30.11,ENE,65,5.0,5.3,84,0.00,CLR,,0.00,WeatherDisplay:10.37,2013-10-31 14:38:00,
2013-10-31 10:39:00,66.0,60.7,30.11,East,88,5.5,6.9,83,0.00,CLR,,0.00,WeatherDisplay:10.37,2013-10-31 14:39:00,
2013-10-31 10:41:00,66.3,61.0,30.11,East,82,4.1,8.1,83,0.00,CLR,,0.00,WeatherDisplay:10.37,2013-10-31 14:41:00,
2013-10-31 10:42:00,65.9,60.6,30.11,ESE,102,2.8,8.1,83,0.00,CLR,,0.00,WeatherDisplay:10.37,2013-10-31 14:42:00,
2013-10-31 10:43:00,66.1,60.8,30.11,ENE,71,3.7,5.8,83,0.00,CLR,,0.00,WeatherDisplay:10.37,2013-10-31 14:43:00,
2013-10-31 10:45:00,65.8,60.5,30.11,East,90,5.8,8.6,83,0.00,CLR,,0.00,WeatherDisplay:10.37,2013-10-31 14:45:00,
2013-10-31 10:47:00,66.1,60.8,30.10,ENE,66,4.8,8.1,83,0.00,CLR,,0.00,WeatherDisplay:10.37,2013-10-31 14:47:00,
2013-10-31 10:48:00,66.2,60.9,30.10,ENE,76,6.6,9.7,83,0.00,CLR,,0.00,WeatherDisplay:10.37,2013-10-31 14:48:00,
2013-10-31 10:50:00,66.2,60.5,30.11,East,86,5.6,6.9,82,0.00,CLR,,0.00,WeatherDisplay:10.37,2013-10-31 14:50:00,
2013-10-31 10:52:00,66.2,60.2,30.10,East,99,5.7,10.4,81,0.00,CLR,,0.00,WeatherDisplay:10.37,2013-10-31 14:52:00,
2013-10-31 10:53:00,66.3,60.6,30.10,NE,35,4.4,10.4,82,0.00,CLR,,0.00,WeatherDisplay:10.37,2013-10-31 14:53:00,
2013-10-31 10:55:00,65.9,60.2,30.10,ESE,121,6.8,10.4,82,0.00,CLR,,0.00,WeatherDisplay:10.37,2013-10-31 14:55:00,
2013-10-31 10:57:00,66.3,60.6,30.10,SE,128,6.6,9.2,82,0.00,CLR,,0.00,WeatherDisplay:10.37,2013-10-31 14:57:00,
2013-10-31 10:58:00,66.3,60.6,30.10,East,100,7.4,10.4,82,0.00,CLR,,0.00,WeatherDisplay:10.37,2013-10-31 14:58:00,
2013-10-31 11:00:00,66.4,60.7,30.10,ESE,112,8.5,12.3,82,0.00,CLR,,0.00,WeatherDisplay:10.37,2013-10-31 15:00:00,
2013-10-31 11:01:00,66.4,60.7,30.10,East,97,9.6,11.7,82,0.00,CLR,,0.00,WeatherDisplay:10.37,2013-10-31 15:01:00,
2013-10-31 11:03:00,66.2,60.2,30.10,East,95,6.1,11.5,81,0.00,CLR,,0.00,WeatherDisplay:10.37,2013-10-31 15:03:00,
2013-10-31 11:04:00,66.3,60.3,30.10,East,100,5.1,8.1,81,0.00,CLR,,0.00,WeatherDisplay:10.37,2013-10-31 15:04:00,
2013-10-31 11:05:00,66.5,60.5,30.10,East,96,6.5,8.1,81,0.00,CLR,,0.00,WeatherDisplay:10.37,2013-10-31 15:05:00,
2013-10-31 11:06:00,66.4,60.4,30.10,East,80,7.4,9.9,81,0.00,CLR,,0.00,WeatherDisplay:10.37,2013-10-31 15:06:00,
2013-10-31 11:07:00,66.8,60.8,30.10,East,92,5.0,10.4,81,0.00,CLR,,0.00,WeatherDisplay:10.37,2013-10-31 15:07:00,
2013-10-31 11:08:00,66.7,60.3,30.10,East,99,6.1,8.1,80,0.00,CLR,,0.00,WeatherDisplay:10.37,2013-10-31 15:08:00,
2013-10-31 11:09:00,66.2,59.8,30.10,SE,140,7.0,9.2,80,0.00,CLR,,0.00,WeatherDisplay:10.37,2013-10-31 15:09:00,
2013-10-31 11:10:00,66.2,59.8,30.10,East,88,6.1,8.1,80,0.00,CLR,,0.00,WeatherDisplay:10.37,2013-10-31 15:10:00,
2013-10-31 11:11:00,66.4,60.0,30.10,ESE,110,5.5,10.4,80,0.00,CLR,,0.00,WeatherDisplay:10.37,2013-10-31 15:11:00,
2013-10-31 11:13:00,66.9,60.5,30.10,ENE,65,5.7,9.2,80,0.00,CLR,,0.00,WeatherDisplay:10.37,2013-10-31 15:13:00,
2013-10-31 11:14:00,66.2,60.2,30.10,East,96,6.1,9.2,81,0.00,CLR,,0.00,WeatherDisplay:10.37,2013-10-31 15:14:00,
2013-10-31 11:16:00,66.7,60.3,30.10,East,93,3.6,10.4,80,0.00,CLR,,0.00,WeatherDisplay:10.37,2013-10-31 15:16:00,
2013-10-31 11:18:00,66.4,60.0,30.10,ESE,104,7.2,10.4,80,0.00,CLR,,0.00,WeatherDisplay:10.37,2013-10-31 15:18:00,
2013-10-31 11:19:00,67.0,60.6,30.10,ESE,109,4.3,8.1,80,0.00,CLR,,0.00,WeatherDisplay:10.37,2013-10-31 15:19:00,
2013-10-31 11:20:00,67.1,60.7,30.10,East,83,5.7,8.1,80,0.00,CLR,,0.00,WeatherDisplay:10.37,2013-10-31 15:20:00,
2013-10-31 11:21:00,66.9,60.5,30.10,ESE,110,7.1,8.1,80,0.00,CLR,,0.00,WeatherDisplay:10.37,2013-10-31 15:21:00,
2013-10-31 11:23:00,67.3,60.6,30.10,ESE,123,5.2,9.2,79,0.00,CLR,,0.00,WeatherDisplay:10.37,2013-10-31 15:23:00,
2013-10-31 11:24:00,67.3,60.6,30.10,NE,45,4.0,5.8,79,0.00,CLR,,0.00,WeatherDisplay:10.37,2013-10-31 15:24:00,
2013-10-31 11:25:00,67.3,60.6,30.10,ESE,116,2.4,5.8,79,0.00,CLR,,0.00,WeatherDisplay:10.37,2013-10-31 15:25:00,
2013-10-31 11:26:00,66.9,60.2,30.10,East,82,0.9,3.5,79,0.00,CLR,,0.00,WeatherDisplay:10.37,2013-10-31 15:26:00,
2013-10-31 11:28:00,67.1,60.4,30.10,East,92,2.6,5.8,79,0.00,CLR,,0.00,WeatherDisplay:10.37,2013-10-31 15:28:00,
2013-10-31 11:29:00,67.2,60.1,30.10,ESE,113,6.0,6.9,78,0.00,CLR,,0.00,WeatherDisplay:10.37,2013-10-31 15:29:00,
2013-10-31 11:30:00,67.4,60.3,30.10,SSE,147,6.4,6.9,78,0.00,CLR,,0.00,WeatherDisplay:10.37,2013-10-31 15:30:00,
2013-10-31 11:31:00,67.8,60.7,30.10,ESE,104,6.0,6.9,78,0.00,CLR,,0.00,WeatherDisplay:10.37,2013-10-31 15:31:00,
2013-10-31 11:32:00,67.2,60.1,30.10,ESE,106,5.5,12.7,78,0.00,CLR,,0.00,WeatherDisplay:10.37,2013-10-31 15:32:00,
2013-10-31 11:33:00,67.7,60.6,30.10,SE,141,7.5,9.2,78,0.00,CLR,,0.00,WeatherDisplay:10.37,2013-10-31 15:33:00,
2013-10-31 11:35:00,67.9,60.8,30.10,ENE,76,5.5,8.1,78,0.00,CLR,,0.00,WeatherDisplay:10.37,2013-10-31 15:35:00,
2013-10-31 11:36:00,67.8,60.7,30.10,ESE,114,5.5,8.1,78,0.00,CLR,,0.00,WeatherDisplay:10.37,2013-10-31 15:36:00,
2013-10-31 11:37:00,68.1,60.6,30.10,ESE,113,5.7,8.1,77,0.00,CLR,,0.00,WeatherDisplay:10.37,2013-10-31 15:37:00,
2013-10-31 11:38:00,68.1,61.0,30.10,ESE,112,5.1,6.9,78,0.00,CLR,,0.00,WeatherDisplay:10.37,2013-10-31 15:38:00,
2013-10-31 11:40:00,68.0,60.2,30.10,ESE,123,5.7,8.7,76,0.00,CLR,,0.00,WeatherDisplay:10.37,2013-10-31 15:40:00,
2013-10-31 11:41:00,68.1,60.2,30.10,SE,126,6.3,10.4,76,0.00,CLR,,0.00,WeatherDisplay:10.37,2013-10-31 15:41:00,
2013-10-31 11:42:00,68.2,60.3,30.10,ESE,112,5.5,10.4,76,0.00,CLR,,0.00,WeatherDisplay:10.37,2013-10-31 15:42:00,
2013-10-31 11:43:00,68.2,60.3,30.10,ESE,104,4.8,7.2,76,0.00,CLR,,0.00,WeatherDisplay:10.37,2013-10-31 15:43:00,
2013-10-31 11:45:00,68.4,60.5,30.10,East,92,3.4,5.8,76,0.00,CLR,,0.00,WeatherDisplay:10.37,2013-10-31 15:45:00,
2013-10-31 11:46:00,68.1,59.9,30.10,SE,127,6.2,8.0,75,0.00,CLR,,0.00,WeatherDisplay:10.37,2013-10-31 15:46:00,
2013-10-31 11:47:00,68.7,60.1,30.10,ESE,109,7.9,10.4,74,0.00,CLR,,0.00,WeatherDisplay:10.37,2013-10-31 15:47:00,
2013-10-31 11:48:00,68.5,60.3,30.10,East,99,4.0,10.4,75,0.00,CLR,,0.00,WeatherDisplay:10.37,2013-10-31 15:48:00,
2013-10-31 11:51:00,68.7,60.1,30.10,ESE,109,4.4,8.1,74,0.00,CLR,,0.00,WeatherDisplay:10.37,2013-10-31 15:51:00,
2013-10-31 11:52:00,68.5,59.9,30.10,SE,130,4.6,7.6,74,0.00,CLR,,0.00,WeatherDisplay:10.37,2013-10-31 15:52:00,
2013-10-31 11:53:00,68.7,59.7,30.10,ENE,71,7.1,9.2,73,0.00,CLR,,0.00,WeatherDisplay:10.37,2013-10-31 15:53:00,
2013-10-31 11:57:00,68.9,59.9,30.10,East,100,5.3,9.2,73,0.00,CLR,,0.00,WeatherDisplay:10.37,2013-10-31 15:57:00,
2013-10-31 11:58:00,68.4,59.4,30.10,SSE,152,4.4,6.6,73,0.00,CLR,,0.00,WeatherDisplay:10.37,2013-10-31 15:58:00,
2013-10-31 11:59:00,68.5,59.5,30.10,ESE,106,5.4,5.8,73,0.00,CLR,,0.00,WeatherDisplay:10.37,2013-10-31 15:59:00,
2013-10-31 12:02:00,68.7,59.7,30.09,ENE,78,2.4,5.8,73,0.00,CLR,,0.00,WeatherDisplay:10.37,2013-10-31 16:02:00,
2013-10-31 12:03:00,68.8,59.8,30.09,ESE,102,3.8,5.8,73,0.00,CLR,,0.00,WeatherDisplay:10.37,2013-10-31 16:03:00,
2013-10-31 12:04:00,68.5,59.5,30.09,ESE,114,4.5,5.8,73,0.00,CLR,,0.00,WeatherDisplay:10.37,2013-10-31 16:04:00,
2013-10-31 12:07:00,68.4,59.4,30.10,SE,134,6.3,8.5,73,0.00,CLR,,0.00,WeatherDisplay:10.37,2013-10-31 16:07:00,
2013-10-31 12:08:00,68.7,59.7,30.09,SE,128,3.6,9.2,73,0.00,CLR,,0.00,WeatherDisplay:10.37,2013-10-31 16:08:00,
2013-10-31 12:09:00,68.5,59.5,30.09,ENE,71,2.1,4.6,73,0.00,CLR,,0.00,WeatherDisplay:10.37,2013-10-31 16:09:00,
2013-10-31 12:12:00,68.5,59.5,30.09,ESE,110,1.7,2.9,73,0.00,CLR,,0.00,WeatherDisplay:10.37,2013-10-31 16:12:00,
2013-10-31 12:13:00,68.5,59.5,30.09,East,100,5.9,8.1,73,0.00,CLR,,0.00,WeatherDisplay:10.37,2013-10-31 16:13:00,
2013-10-31 12:14:00,68.5,59.5,30.09,ESE,117,6.0,8.1,73,0.00,CLR,,0.00,WeatherDisplay:10.37,2013-10-31 16:14:00,
2013-10-31 12:18:00,68.3,59.3,30.09,ESE,113,5.7,9.2,73,0.00,CLR,,0.00,WeatherDisplay:10.37,2013-10-31 16:18:00,
2013-10-31 12:19:00,68.3,59.3,30.09,East,89,4.5,8.1,73,0.00,CLR,,0.00,WeatherDisplay:10.37,2013-10-31 16:19:00,
2013-10-31 12:23:00,68.4,59.4,30.09,ESE,106,5.4,7.3,73,0.00,CLR,,0.00,WeatherDisplay:10.37,2013-10-31 16:23:00,
2013-10-31 12:24:00,68.2,59.2,30.09,NE,45,6.7,10.4,73,0.00,CLR,,0.00,WeatherDisplay:10.37,2013-10-31 16:24:00,
2013-10-31 12:25:00,68.3,59.3,30.09,ESE,102,4.8,6.9,73,0.00,CLR,,0.00,WeatherDisplay:10.37,2013-10-31 16:25:00,
2013-10-31 12:28:00,68.1,59.1,30.08,ESE,112,3.7,6.9,73,0.00,CLR,,0.00,WeatherDisplay:10.37,2013-10-31 16:28:00,
2013-10-31 12:29:00,68.2,59.2,30.08,ESE,104,4.8,6.9,73,0.00,CLR,,0.00,WeatherDisplay:10.37,2013-10-31 16:29:00,
2013-10-31 12:30:00,68.5,59.5,30.08,East,100,5.9,9.2,73,0.00,CLR,,0.00,WeatherDisplay:10.37,2013-10-31 16:30:00,
2013-10-31 12:34:00,68.3,59.7,30.08,East,86,5.8,8.1,74,0.00,CLR,,0.00,WeatherDisplay:10.37,2013-10-31 16:34:00,
2013-10-31 12:35:00,68.1,59.1,30.08,ESE,114,5.4,8.1,73,0.00,CLR,,0.00,WeatherDisplay:10.37,2013-10-31 16:35:00,
2013-10-31 12:36:00,68.3,59.3,30.08,ESE,112,6.8,10.4,73,0.00,CLR,,0.00,WeatherDisplay:10.37,2013-10-31 16:36:00,
2013-10-31 12:39:00,68.3,59.3,30.08,ESE,104,5.1,6.9,73,0.00,CLR,,0.00,WeatherDisplay:10.37,2013-10-31 16:39:00,
2013-10-31 12:40:00,68.3,59.3,30.08,ENE,75,4.5,7.6,73,0.00,CLR,,0.00,WeatherDisplay:10.37,2013-10-31 16:40:00,
2013-10-31 12:41:00,68.3,59.3,30.08,East,96,6.0,8.1,73,0.00,CLR,,0.00,WeatherDisplay:10.37,2013-10-31 16:41:00,
2013-10-31 12:44:00,68.5,59.5,30.07,SE,130,4.0,6.9,73,0.00,CLR,,0.00,WeatherDisplay:10.37,2013-10-31 16:44:00,
2013-10-31 12:45:00,68.5,59.5,30.07,ENE,76,3.0,7.9,73,0.00,CLR,,0.00,WeatherDisplay:10.37,2013-10-31 16:45:00,
2013-10-31 12:46:00,68.1,59.1,30.07,East,89,5.4,8.1,73,0.00,CLR,,0.00,WeatherDisplay:10.37,2013-10-31 16:46:00,
2013-10-31 12:49:00,68.4,59.4,30.07,ESE,116,5.1,8.1,73,0.00,CLR,,0.00,WeatherDisplay:10.37,2013-10-31 16:49:00,
2013-10-31 12:50:00,68.6,59.6,30.07,East,88,5.2,6.9,73,0.00,CLR,,0.00,WeatherDisplay:10.37,2013-10-31 16:50:00,
2013-10-31 12:51:00,68.6,59.6,30.07,East,95,4.5,7.4,73,0.00,CLR,,0.00,WeatherDisplay:10.37,2013-10-31 16:51:00,
2013-10-31 12:52:00,68.4,59.0,30.07,East,92,5.7,7.0,72,0.00,CLR,,0.00,WeatherDisplay:10.37,2013-10-31 16:52:00,
2013-10-31 12:54:00,68.5,59.1,30.07,East,86,2.1,8.1,72,0.00,CLR,,0.00,WeatherDisplay:10.37,2013-10-31 16:54:00,
2013-10-31 12:55:00,68.4,59.0,30.07,East,80,2.2,5.3,72,0.00,CLR,,0.00,WeatherDisplay:10.37,2013-10-31 16:55:00,
2013-10-31 12:56:00,68.6,59.2,30.07,ENE,66,4.5,8.1,72,0.00,CLR,,0.00,WeatherDisplay:10.37,2013-10-31 16:56:00,
2013-10-31 12:57:00,68.7,59.3,30.07,ESE,119,4.6,8.1,72,0.00,CLR,,0.00,WeatherDisplay:10.37,2013-10-31 16:57:00,
2013-10-31 12:59:00,69.1,59.7,30.06,ENE,64,1.0,4.8,72,0.00,CLR,,0.00,WeatherDisplay:10.37,2013-10-31 16:59:00,
2013-10-31 13:00:00,69.0,59.6,30.06,East,97,5.4,6.9,72,0.00,CLR,,0.00,WeatherDisplay:10.37,2013-10-31 17:00:00,
2013-10-31 13:02:00,68.8,59.4,30.06,East,89,5.5,6.9,72,0.00,CLR,,0.00,WeatherDisplay:10.37,2013-10-31 17:02:00,
2013-10-31 13:03:00,69.0,59.2,30.06,SE,124,3.2,8.1,71,0.00,CLR,,0.00,WeatherDisplay:10.37,2013-10-31 17:03:00,
2013-10-31 13:04:00,69.1,59.3,30.06,East,99,5.8,6.3,71,0.00,CLR,,0.00,WeatherDisplay:10.37,2013-10-31 17:04:00,
2013-10-31 13:06:00,69.3,59.1,30.06,East,88,3.2,9.2,70,0.00,CLR,,0.00,WeatherDisplay:10.37,2013-10-31 17:06:00,
2013-10-31 13:07:00,69.6,59.8,30.06,ESE,120,2.9,8.1,71,0.00,CLR,,0.00,WeatherDisplay:10.37,2013-10-31 17:07:00,
2013-10-31 13:08:00,69.5,59.3,30.06,ESE,123,3.5,8.1,70,0.00,CLR,,0.00,WeatherDisplay:10.37,2013-10-31 17:08:00,
2013-10-31 13:10:00,69.7,59.5,30.06,East,100,1.0,5.8,70,0.00,CLR,,0.00,WeatherDisplay:10.37,2013-10-31 17:10:00,
2013-10-31 13:11:00,69.5,59.3,30.06,ENE,75,2.5,6.5,70,0.00,CLR,,0.00,WeatherDisplay:10.37,2013-10-31 17:11:00,
2013-10-31 13:12:00,69.4,59.2,30.06,SE,136,4.4,7.8,70,0.00,CLR,,0.00,WeatherDisplay:10.37,2013-10-31 17:12:00,
2013-10-31 13:13:00,69.5,59.3,30.06,SE,130,4.8,10.4,70,0.00,CLR,,0.00,WeatherDisplay:10.37,2013-10-31 17:13:00,
2013-10-31 13:15:00,69.9,59.3,30.05,ENE,65,4.4,8.1,69,0.00,CLR,,0.00,WeatherDisplay:10.37,2013-10-31 17:15:00,
2013-10-31 13:16:00,69.5,58.9,30.05,SE,131,4.5,8.1,69,0.00,CLR,,0.00,WeatherDisplay:10.37,2013-10-31 17:16:00,
2013-10-31 13:17:00,69.6,58.6,30.05,ESE,120,1.4,4.6,68,0.00,CLR,,0.00,WeatherDisplay:10.37,2013-10-31 17:17:00,
2013-10-31 13:19:00,70.0,59.0,30.05,East,88,3.6,12.7,68,0.00,CLR,,0.00,WeatherDisplay:10.37,2013-10-31 17:19:00,
2013-10-31 13:21:00,70.1,59.0,30.05,ESE,114,5.2,8.1,68,0.00,CLR,,0.00,WeatherDisplay:10.37,2013-10-31 17:21:00,
2013-10-31 13:22:00,70.1,59.0,30.05,ENE,68,1.9,8.1,68,0.00,CLR,,0.00,WeatherDisplay:10.37,2013-10-31 17:22:00,
2013-10-31 13:23:00,70.4,59.3,30.05,ENE,68,0.0,4.6,68,0.00,CLR,,0.00,WeatherDisplay:10.37,2013-10-31 17:23:00,
2013-10-31 13:24:00,70.5,59.4,30.05,ENE,66,3.6,6.9,68,0.00,CLR,,0.00,WeatherDisplay:10.37,2013-10-31 17:24:00,
2013-10-31 13:26:00,70.5,59.0,30.04,East,100,5.1,8.1,67,0.00,CLR,,0.00,WeatherDisplay:10.37,2013-10-31 17:26:00,
2013-10-31 13:27:00,70.6,58.7,30.04,East,96,6.4,8.1,66,0.00,CLR,,0.00,WeatherDisplay:10.37,2013-10-31 17:27:00,
2013-10-31 13:28:00,70.6,58.7,30.04,East,99,6.3,8.1,66,0.00,CLR,,0.00,WeatherDisplay:10.37,2013-10-31 17:28:00,
2013-10-31 13:29:00,70.8,58.9,30.04,East,92,6.2,9.9,66,0.00,CLR,,0.00,WeatherDisplay:10.37,2013-10-31 17:29:00,
2013-10-31 13:31:00,70.8,58.0,30.04,ESE,107,6.8,11.5,64,0.00,CLR,,0.00,WeatherDisplay:10.37,2013-10-31 17:31:00,
2013-10-31 13:32:00,71.1,58.7,30.04,NE,41,4.9,9.2,65,0.00,CLR,,0.00,WeatherDisplay:10.37,2013-10-31 17:32:00,
2013-10-31 13:33:00,70.9,58.1,30.04,ESE,107,4.7,8.3,64,0.00,CLR,,0.00,WeatherDisplay:10.37,2013-10-31 17:33:00,
2013-10-31 13:34:00,70.7,57.9,30.04,SE,127,2.1,8.1,64,0.00,CLR,,0.00,WeatherDisplay:10.37,2013-10-31 17:34:00,
2013-10-31 13:36:00,70.8,58.0,30.03,East,96,4.1,9.2,64,0.00,CLR,,0.00,WeatherDisplay:10.37,2013-10-31 17:36:00,
2013-10-31 13:38:00,71.0,58.2,30.03,SSE,147,3.2,6.9,64,0.00,CLR,,0.00,WeatherDisplay:10.37,2013-10-31 17:38:00,
2013-10-31 13:39:00,71.3,58.1,30.03,SE,130,6.2,6.9,63,0.00,CLR,,0.00,WeatherDisplay:10.37,2013-10-31 17:39:00,
2013-10-31 13:41:00,71.0,57.8,30.03,East,100,3.8,9.2,63,0.00,CLR,,0.00,WeatherDisplay:10.37,2013-10-31 17:41:00,
2013-10-31 13:43:00,71.1,57.9,30.03,ESE,123,2.7,8.2,63,0.00,CLR,,0.00,WeatherDisplay:10.37,2013-10-31 17:43:00,
2013-10-31 13:44:00,70.9,57.7,30.03,ESE,107,5.7,8.1,63,0.00,CLR,,0.00,WeatherDisplay:10.37,2013-10-31 17:44:00,
2013-10-31 13:46:00,71.3,58.1,30.03,SE,137,2.2,9.3,63,0.00,CLR,,0.00,WeatherDisplay:10.37,2013-10-31 17:46:00,
2013-10-31 13:48:00,71.0,57.3,30.03,SE,124,1.7,9.2,62,0.00,CLR,,0.00,WeatherDisplay:10.37,2013-10-31 17:48:00,
2013-10-31 13:49:00,70.6,56.9,30.03,SE,124,0.1,3.5,62,0.00,CLR,,0.00,WeatherDisplay:10.37,2013-10-31 17:49:00,
2013-10-31 13:50:00,71.2,57.5,30.03,SE,124,0.0,3.5,62,0.00,CLR,,0.00,WeatherDisplay:10.37,2013-10-31 17:50:00,
2013-10-31 13:51:00,71.1,57.4,30.03,SE,124,0.0,0.0,62,0.00,CLR,,0.00,WeatherDisplay:10.37,2013-10-31 17:51:00,
2013-10-31 13:53:00,71.2,57.5,30.03,SE,141,0.6,9.2,62,0.00,CLR,,0.00,WeatherDisplay:10.37,2013-10-31 17:53:00,
2013-10-31 13:54:00,70.9,56.8,30.03,ESE,117,1.1,7.0,61,0.00,CLR,,0.00,WeatherDisplay:10.37,2013-10-31 17:54:00,
2013-10-31 13:55:00,70.8,56.7,30.03,South,171,6.8,10.4,61,0.00,CLR,,0.00,WeatherDisplay:10.37,2013-10-31 17:55:00,
2013-10-31 13:57:00,71.1,57.4,30.03,SSE,152,0.0,3.5,62,0.00,CLR,,0.00,WeatherDisplay:10.37,2013-10-31 17:57:00,
2013-10-31 13:59:00,71.2,57.1,30.03,SE,131,2.4,6.1,61,0.00,CLR,,0.00,WeatherDisplay:10.37,2013-10-31 17:59:00,
2013-10-31 14:00:00,71.0,56.9,30.02,East,90,2.7,8.1,61,0.00,CLR,,0.00,WeatherDisplay:10.37,2013-10-31 18:00:00,
2013-10-31 14:02:00,70.8,56.7,30.02,East,79,0.0,4.6,61,0.00,CLR,,0.00,WeatherDisplay:10.37,2013-10-31 18:02:00,
2013-10-31 14:04:00,71.0,56.9,30.03,East,79,0.0,0.0,61,0.00,CLR,,0.00,WeatherDisplay:10.37,2013-10-31 18:04:00,
2013-10-31 14:05:00,70.8,56.7,30.03,SSE,161,1.9,5.8,61,0.00,CLR,,0.00,WeatherDisplay:10.37,2013-10-31 18:05:00,
2013-10-31 14:07:00,71.0,56.4,30.03,SSE,165,5.7,9.2,60,0.00,CLR,,0.00,WeatherDisplay:10.37,2013-10-31 18:07:00,
2013-10-31 14:10:00,71.1,56.5,30.02,SE,124,1.0,6.8,60,0.00,CLR,,0.00,WeatherDisplay:10.37,2013-10-31 18:10:00,
2013-10-31 14:11:00,71.1,56.5,30.02,ESE,117,4.1,6.0,60,0.00,CLR,,0.00,WeatherDisplay:10.37,2013-10-31 18:11:00,
2013-10-31 14:12:00,71.5,56.9,30.02,West,278,0.7,5.8,60,0.00,CLR,,0.00,WeatherDisplay:10.37,2013-10-31 18:12:00,
2013-10-31 14:15:00,71.3,56.2,30.02,SSE,162,0.0,0.0,59,0.00,CLR,,0.00,WeatherDisplay:10.37,2013-10-31 18:15:00,
2013-10-31 14:16:00,71.4,56.3,30.02,SW,215,0.9,0.0,59,0.00,CLR,,0.00,WeatherDisplay:10.37,2013-10-31 18:16:00,
2013-10-31 14:17:00,71.5,55.9,30.02,South,182,4.9,6.9,58,0.00,CLR,,0.00,WeatherDisplay:10.37,2013-10-31 18:17:00,
2013-10-31 14:20:00,71.6,55.6,30.02,East,85,2.5,5.8,57,0.00,CLR,,0.00,WeatherDisplay:10.37,2013-10-31 18:20:00,
2013-10-31 14:21:00,71.6,55.6,30.02,East,85,1.1,5.8,57,0.00,CLR,,0.00,WeatherDisplay:10.37,2013-10-31 18:21:00,
2013-10-31 14:22:00,71.6,55.6,30.02,East,85,0.0,0.0,57,0.00,CLR,,0.00,WeatherDisplay:10.37,2013-10-31 18:22:00,
2013-10-31 14:23:00,71.8,55.7,30.02,East,100,0.0,3.5,57,0.00,CLR,,0.00,WeatherDisplay:10.37,2013-10-31 18:23:00,
2013-10-31 14:26:00,71.5,55.0,30.02,SW,233,1.8,8.1,56,0.00,CLR,,0.00,WeatherDisplay:10.37,2013-10-31 18:26:00,
2013-10-31 14:28:00,71.8,55.3,30.01,ENE,72,2.3,10.4,56,0.00,CLR,,0.00,WeatherDisplay:10.37,2013-10-31 18:28:00,
2013-10-31 14:31:00,72.1,55.5,30.01,SSE,154,3.5,8.1,56,0.00,CLR,,0.00,WeatherDisplay:10.37,2013-10-31 18:31:00,
2013-10-31 14:32:00,72.3,55.7,30.01,NE,47,1.1,6.9,56,0.00,CLR,,0.00,WeatherDisplay:10.37,2013-10-31 18:32:00,
2013-10-31 14:33:00,72.1,55.5,30.01,NE,47,0.3,4.6,56,0.00,CLR,,0.00,WeatherDisplay:10.37,2013-10-31 18:33:00,
2013-10-31 14:36:00,71.5,55.0,30.00,SE,124,4.6,10.4,56,0.00,CLR,,0.00,WeatherDisplay:10.37,2013-10-31 18:36:00,
2013-10-31 14:37:00,71.4,54.9,30.00,South,174,3.3,10.4,56,0.00,CLR,,0.00,WeatherDisplay:10.37,2013-10-31 18:37:00,
2013-10-31 14:38:00,71.5,55.0,30.00,SE,145,3.3,10.7,56,0.00,CLR,,0.00,WeatherDisplay:10.37,2013-10-31 18:38:00,
2013-10-31 14:41:00,71.5,54.5,30.00,South,181,3.9,6.9,55,0.00,CLR,,0.00,WeatherDisplay:10.37,2013-10-31 18:41:00,
2013-10-31 14:42:00,71.8,54.8,30.00,South,181,1.9,6.9,55,0.00,CLR,,0.00,WeatherDisplay:10.37,2013-10-31 18:42:00,
2013-10-31 14:43:00,71.7,55.2,30.00,NE,35,3.6,6.9,56,0.00,CLR,,0.00,WeatherDisplay:10.37,2013-10-31 18:43:00,
2013-10-31 14:44:00,71.7,55.2,30.00,NE,35,0.0,8.1,56,0.00,CLR,,0.00,WeatherDisplay:10.37,2013-10-31 18:44:00,
2013-10-31 14:46:00,71.7,55.2,30.00,NNW,347,1.4,4.9,56,0.00,CLR,,0.00,WeatherDisplay:10.37,2013-10-31 18:46:00,
2013-10-31 14:47:00,71.5,55.0,30.00,SSE,154,3.2,8.1,56,0.00,CLR,,0.00,WeatherDisplay:10.37,2013-10-31 18:47:00,
2013-10-31 14:48:00,71.5,55.0,30.00,South,181,5.2,8.1,56,0.00,CLR,,0.00,WeatherDisplay:10.37,2013-10-31 18:48:00,
2013-10-31 14:49:00,71.6,54.6,30.00,SSE,157,6.8,11.5,55,0.00,CLR,,0.00,WeatherDisplay:10.37,2013-10-31 18:49:00,
2013-10-31 14:51:00,71.7,55.2,30.00,East,83,0.5,4.3,56,0.00,CLR,,0.00,WeatherDisplay:10.37,2013-10-31 18:51:00,
2013-10-31 14:52:00,71.3,54.8,30.00,ENE,61,1.7,4.6,56,0.00,CLR,,0.00,WeatherDisplay:10.37,2013-10-31 18:52:00,
2013-10-31 14:53:00,71.5,55.0,30.00,South,178,6.7,11.5,56,0.00,CLR,,0.00,WeatherDisplay:10.37,2013-10-31 18:53:00,
2013-10-31 14:54:00,71.1,54.6,30.00,SW,230,3.9,13.8,56,0.00,CLR,,0.00,WeatherDisplay:10.37,2013-10-31 18:54:00,
2013-10-31 14:57:00,71.3,54.8,30.00,SSE,154,2.7,10.4,56,0.00,CLR,,0.00,WeatherDisplay:10.37,2013-10-31 18:57:00,
2013-10-31 14:58:00,71.2,54.7,30.00,SE,127,2.2,6.0,56,0.00,CLR,,0.00,WeatherDisplay:10.37,2013-10-31 18:58:00,
2013-10-31 15:00:00,70.5,54.0,30.00,SE,144,8.2,15.0,56,0.00,CLR,,0.00,WeatherDisplay:10.37,2013-10-31 19:00:00,
2013-10-31 15:02:00,70.9,54.4,30.00,SSW,208,4.8,8.1,56,0.00,CLR,,0.00,WeatherDisplay:10.37,2013-10-31 19:02:00,
2013-10-31 15:03:00,70.8,54.3,30.00,North,8,4.2,9.2,56,0.00,CLR,,0.00,WeatherDisplay:10.37,2013-10-31 19:03:00,
2013-10-31 15:04:00,70.6,54.1,30.00,North,8,3.0,10.4,56,0.00,CLR,,0.00,WeatherDisplay:10.37,2013-10-31 19:04:00,
2013-10-31 15:05:00,70.8,54.8,30.00,North,8,0.0,0.0,57,0.00,CLR,,0.00,WeatherDisplay:10.37,2013-10-31 19:05:00,
2013-10-31 15:08:00,70.1,54.2,30.01,SE,143,0.0,0.0,57,0.00,CLR,,0.00,WeatherDisplay:10.37,2013-10-31 19:08:00,
2013-10-31 15:09:00,70.4,54.4,30.01,SE,143,0.0,0.0,57,0.00,CLR,,0.00,WeatherDisplay:10.37,2013-10-31 19:09:00,
2013-10-31 15:10:00,70.4,54.4,30.01,SE,138,2.1,7.0,57,0.00,CLR,,0.00,WeatherDisplay:10.37,2013-10-31 19:10:00,
2013-10-31 15:11:00,70.5,54.5,30.01,SSE,148,6.1,11.5,57,0.00,CLR,,0.00,WeatherDisplay:10.37,2013-10-31 19:11:00,
2013-10-31 15:13:00,70.6,55.1,30.02,North,3,3.3,9.8,58,0.00,CLR,,0.00,WeatherDisplay:10.37,2013-10-31 19:13:00,
2013-10-31 15:14:00,70.0,54.1,30.01,South,179,4.7,11.5,57,0.00,CLR,,0.00,WeatherDisplay:10.37,2013-10-31 19:14:00,
2013-10-31 15:15:00,70.1,54.2,30.02,SSW,206,3.4,14.2,57,0.00,CLR,,0.00,WeatherDisplay:10.37,2013-10-31 19:15:00,
2013-10-31 15:16:00,70.5,54.5,30.01,East,97,5.0,13.8,57,0.00,CLR,,0.00,WeatherDisplay:10.37,2013-10-31 19:16:00,
2013-10-31 15:18:00,70.3,54.8,30.01,SE,143,1.3,10.9,58,0.00,CLR,,0.00,WeatherDisplay:10.37,2013-10-31 19:18:00,
2013-10-31 15:19:00,70.3,54.8,30.01,SSE,155,4.0,12.7,58,0.00,CLR,,0.00,WeatherDisplay:10.37,2013-10-31 19:19:00,
2013-10-31 15:20:00,70.2,54.7,30.01,SE,144,2.1,8.1,58,0.00,CLR,,0.00,WeatherDisplay:10.37,2013-10-31 19:20:00,
2013-10-31 15:22:00,70.4,54.9,30.01,ESE,123,2.0,5.8,58,0.00,CLR,,0.00,WeatherDisplay:10.37,2013-10-31 19:22:00,
2013-10-31 15:23:00,70.5,55.0,30.01,SSE,165,0.4,2.7,58,0.00,CLR,,0.00,WeatherDisplay:10.37,2013-10-31 19:23:00,
2013-10-31 15:24:00,69.9,54.4,30.01,SSE,165,3.8,8.0,58,0.00,CLR,,0.00,WeatherDisplay:10.37,2013-10-31 19:24:00,
2013-10-31 15:25:00,70.1,54.6,30.01,SSE,151,5.2,8.1,58,0.00,CLR,,0.00,WeatherDisplay:10.37,2013-10-31 19:25:00,
2013-10-31 15:27:00,69.9,54.4,30.00,SSW,192,3.5,9.2,58,0.00,CLR,,0.00,WeatherDisplay:10.37,2013-10-31 19:27:00,
2013-10-31 15:28:00,70.2,54.7,30.00,SSE,162,5.1,8.1,58,0.00,CLR,,0.00,WeatherDisplay:10.37,2013-10-31 19:28:00,
2013-10-31 15:29:00,69.9,54.4,30.00,ESE,107,3.6,8.1,58,0.00,CLR,,0.00,WeatherDisplay:10.37,2013-10-31 19:29:00,
2013-10-31 15:30:00,70.1,54.6,30.00,South,182,3.7,8.1,58,0.00,CLR,,0.00,WeatherDisplay:10.37,2013-10-31 19:30:00,
2013-10-31 15:32:00,70.3,54.8,30.00,ESE,121,0.6,5.8,58,0.00,CLR,,0.00,WeatherDisplay:10.37,2013-10-31 19:32:00,
2013-10-31 15:34:00,69.9,54.4,30.00,SE,124,2.6,9.2,58,0.00,CLR,,0.00,WeatherDisplay:10.37,2013-10-31 19:34:00,
2013-10-31 15:35:00,69.8,54.4,30.00,South,189,3.5,6.9,58,0.00,CLR,,0.00,WeatherDisplay:10.37,2013-10-31 19:35:00,
2013-10-31 15:38:00,70.1,55.1,30.00,ESE,109,0.5,3.5,59,0.00,CLR,,0.00,WeatherDisplay:10.37,2013-10-31 19:38:00,
2013-10-31 15:39:00,69.9,54.9,30.00,ESE,109,0.0,0.0,59,0.00,CLR,,0.00,WeatherDisplay:10.37,2013-10-31 19:39:00,
2013-10-31 15:40:00,69.9,54.9,30.00,SSE,154,1.4,4.7,59,0.00,CLR,,0.00,WeatherDisplay:10.37,2013-10-31 19:40:00,
2013-10-31 15:43:00,69.8,54.8,30.00,SSE,165,0.8,4.6,59,0.00,CLR,,0.00,WeatherDisplay:10.37,2013-10-31 19:43:00,
2013-10-31 15:44:00,70.1,55.1,30.00,NE,47,2.0,4.6,59,0.00,CLR,,0.00,WeatherDisplay:10.37,2013-10-31 19:44:00,
2013-10-31 15:45:00,69.5,54.5,30.00,ENE,62,0.1,4.6,59,0.00,CLR,,0.00,WeatherDisplay:10.37,2013-10-31 19:45:00,
2013-10-31 15:48:00,70.0,55.0,30.00,South,176,4.4,10.4,59,0.00,CLR,,0.00,WeatherDisplay:10.37,2013-10-31 19:48:00,
2013-10-31 15:49:00,70.0,55.0,30.00,East,89,3.8,8.1,59,0.00,CLR,,0.00,WeatherDisplay:10.37,2013-10-31 19:49:00,
2013-10-31 15:51:00,69.4,54.4,30.00,WSW,247,1.6,3.5,59,0.00,CLR,,0.00,WeatherDisplay:10.37,2013-10-31 19:51:00,
2013-10-31 15:52:00,69.6,54.6,30.00,ENE,66,5.6,13.8,59,0.00,CLR,,0.00,WeatherDisplay:10.37,2013-10-31 19:52:00,
2013-10-31 15:53:00,69.9,54.9,30.00,SW,216,2.1,10.4,59,0.00,CLR,,0.00,WeatherDisplay:10.37,2013-10-31 19:53:00,
2013-10-31 15:54:00,69.9,54.9,30.00,SE,141,3.8,6.9,59,0.00,CLR,,0.00,WeatherDisplay:10.37,2013-10-31 19:54:00,
2013-10-31 15:56:00,69.9,54.9,30.00,SSE,167,4.6,8.1,59,0.00,CLR,,0.00,WeatherDisplay:10.37,2013-10-31 19:56:00,
2013-10-31 15:57:00,69.8,54.8,30.00,SSW,213,2.0,9.2,59,0.00,CLR,,0.00,WeatherDisplay:10.37,2013-10-31 19:57:00,
2013-10-31 15:58:00,69.6,54.6,30.00,ESE,102,2.9,5.8,59,0.00,CLR,,0.00,WeatherDisplay:10.37,2013-10-31 19:58:00,
2013-10-31 15:59:00,69.5,54.5,30.00,ESE,102,1.4,3.5,59,0.00,CLR,,0.00,WeatherDisplay:10.37,2013-10-31 19:59:00,
2013-10-31 16:01:00,69.3,54.8,30.00,SSW,192,0.4,6.7,60,0.00,CLR,,0.00,WeatherDisplay:10.37,2013-10-31 20:01:00,
2013-10-31 16:02:00,69.5,55.0,30.00,ESE,102,1.5,6.9,60,0.00,CLR,,0.00,WeatherDisplay:10.37,2013-10-31 20:02:00,
2013-10-31 16:04:00,69.3,54.8,30.00,ENE,64,1.5,5.8,60,0.00,CLR,,0.00,WeatherDisplay:10.37,2013-10-31 20:04:00,
2013-10-31 16:05:00,69.3,54.8,30.00,ENE,64,1.5,5.8,60,0.00,CLR,,0.00,WeatherDisplay:10.37,2013-10-31 20:05:00,
2013-10-31 16:06:00,69.1,54.6,30.00,SE,127,4.6,8.1,60,0.00,CLR,,0.00,WeatherDisplay:10.37,2013-10-31 20:06:00,
2013-10-31 16:09:00,69.6,55.1,30.00,SSE,150,0.0,0.0,60,0.00,CLR,,0.00,WeatherDisplay:10.37,2013-10-31 20:09:00,
2013-10-31 16:10:00,69.5,55.5,30.00,SSE,150,0.0,6.6,61,0.00,CLR,,0.00,WeatherDisplay:10.37,2013-10-31 20:10:00,
2013-10-31 16:11:00,69.3,55.3,30.00,SE,124,3.2,6.9,61,0.00,CLR,,0.00,WeatherDisplay:10.37,2013-10-31 20:11:00,
2013-10-31 16:14:00,69.4,55.4,30.00,SE,133,0.7,3.3,61,0.00,CLR,,0.00,WeatherDisplay:10.37,2013-10-31 20:14:00,
2013-10-31 16:15:00,69.4,55.4,30.00,ESE,117,1.1,7.4,61,0.00,CLR,,0.00,WeatherDisplay:10.37,2013-10-31 20:15:00,
2013-10-31 16:16:00,69.4,55.4,30.00,NE,35,6.3,6.9,61,0.00,CLR,,0.00,WeatherDisplay:10.37,2013-10-31 20:16:00,
2013-10-31 16:17:00,69.3,55.3,30.00,SSE,148,3.4,10.4,61,0.00,CLR,,0.00,WeatherDisplay:10.37,2013-10-31 20:17:00,
2013-10-31 16:19:00,69.5,55.9,29.99,South,178,1.3,8.1,62,0.00,CLR,,0.00,WeatherDisplay:10.37,2013-10-31 20:19:00,
2013-10-31 16:20:00,69.6,56.0,29.99,South,178,0.5,8.1,62,0.00,CLR,,0.00,WeatherDisplay:10.37,2013-10-31 20:20:00,
2013-10-31 16:21:00,69.2,55.6,29.99,ENE,73,5.4,10.4,62,0.00,CLR,,0.00,WeatherDisplay:10.37,2013-10-31 20:21:00,
2013-10-31 16:22:00,69.6,56.0,29.99,SSW,206,1.6,10.4,62,0.00,CLR,,0.00,WeatherDisplay:10.37,2013-10-31 20:22:00,
2013-10-31 16:24:00,69.4,55.8,29.99,SE,137,6.6,10.4,62,0.00,CLR,,0.00,WeatherDisplay:10.37,2013-10-31 20:24:00,
2013-10-31 16:25:00,69.1,55.5,29.99,ESE,112,5.3,10.4,62,0.00,CLR,,0.00,WeatherDisplay:10.37,2013-10-31 20:25:00,
2013-10-31 16:26:00,69.3,55.7,29.99,SW,220,0.0,4.6,62,0.00,CLR,,0.00,WeatherDisplay:10.37,2013-10-31 20:26:00,
2013-10-31 16:27:00,69.5,55.9,29.99,ENE,59,1.3,4.6,62,0.00,CLR,,0.00,WeatherDisplay:10.37,2013-10-31 20:27:00,
2013-10-31 16:28:00,69.4,55.8,29.99,SE,141,5.9,8.1,62,0.00,CLR,,0.00,WeatherDisplay:10.37,2013-10-31 20:28:00,
2013-10-31 16:29:00,69.2,55.6,29.99,ESE,114,9.5,14.9,62,0.00,CLR,,0.00,WeatherDisplay:10.37,2013-10-31 20:29:00,
2013-10-31 16:30:00,69.1,55.5,29.99,SE,127,11.1,17.3,62,0.00,CLR,,0.00,WeatherDisplay:10.37,2013-10-31 20:30:00,
2013-10-31 16:32:00,69.0,55.4,29.98,ESE,116,1.0,8.1,62,0.00,CLR,,0.00,WeatherDisplay:10.37,2013-10-31 20:32:00,
2013-10-31 16:33:00,69.0,55.4,29.98,East,93,0.1,6.9,62,0.00,CLR,,0.00,WeatherDisplay:10.37,2013-10-31 20:33:00,
2013-10-31 16:35:00,68.9,55.3,29.98,East,93,0.0,0.0,62,0.00,CLR,,0.00,WeatherDisplay:10.37,2013-10-31 20:35:00,
2013-10-31 16:37:00,69.1,55.5,29.98,ESE,104,7.6,10.4,62,0.00,CLR,,0.00,WeatherDisplay:10.37,2013-10-31 20:37:00,
2013-10-31 16:38:00,69.2,56.1,29.98,SE,127,2.5,9.2,63,0.00,CLR,,0.00,WeatherDisplay:10.37,2013-10-31 20:38:00,
2013-10-31 16:40:00,69.0,55.9,29.98,ESE,116,6.9,9.3,63,0.00,CLR,,0.00,WeatherDisplay:10.37,2013-10-31 20:40:00,
2013-10-31 16:41:00,68.8,55.7,29.98,ENE,62,6.9,9.2,63,0.00,CLR,,0.00,WeatherDisplay:10.37,2013-10-31 20:41:00,
2013-10-31 16:42:00,68.6,55.5,29.97,SE,137,0.4,6.9,63,0.00,CLR,,0.00,WeatherDisplay:10.37,2013-10-31 20:42:00,
2013-10-31 16:43:00,68.9,55.8,29.97,SE,137,0.2,3.5,63,0.00,CLR,,0.00,WeatherDisplay:10.37,2013-10-31 20:43:00,
2013-10-31 16:44:00,68.5,55.4,29.97,East,90,0.8,4.7,63,0.00,CLR,,0.00,WeatherDisplay:10.37,2013-10-31 20:44:00,
2013-10-31 16:45:00,69.1,56.0,29.97,ENE,65,2.6,6.9,63,0.00,CLR,,0.00,WeatherDisplay:10.37,2013-10-31 20:45:00,
2013-10-31 16:46:00,69.0,55.9,29.97,ENE,65,0.4,6.9,63,0.00,CLR,,0.00,WeatherDisplay:10.37,2013-10-31 20:46:00,
2013-10-31 16:47:00,68.9,56.2,29.97,SSE,147,5.0,8.1,64,0.00,CLR,,0.00,WeatherDisplay:10.37,2013-10-31 20:47:00,
2013-10-31 16:49:00,68.7,56.0,29.97,SE,130,2.9,6.9,64,0.00,CLR,,0.00,WeatherDisplay:10.37,2013-10-31 20:49:00,
2013-10-31 16:51:00,68.6,55.9,29.96,East,90,6.7,9.2,64,0.00,CLR,,0.00,WeatherDisplay:10.37,2013-10-31 20:51:00,
2013-10-31 16:52:00,68.6,55.9,29.97,SE,140,4.3,6.9,64,0.00,CLR,,0.00,WeatherDisplay:10.37,2013-10-31 20:52:00,
2013-10-31 16:54:00,68.9,56.2,29.97,SE,145,2.8,6.9,64,0.00,CLR,,0.00,WeatherDisplay:10.37,2013-10-31 20:54:00,
2013-10-31 16:56:00,68.5,56.3,29.97,East,82,2.3,8.4,65,0.00,CLR,,0.00,WeatherDisplay:10.37,2013-10-31 20:56:00,
2013-10-31 16:57:00,68.2,56.0,29.97,ESE,110,3.7,8.1,65,0.00,CLR,,0.00,WeatherDisplay:10.37,2013-10-31 20:57:00,
2013-10-31 16:59:00,68.5,56.3,29.96,ENE,71,2.0,6.9,65,0.00,CLR,,0.00,WeatherDisplay:10.37,2013-10-31 20:59:00,
2013-10-31 17:01:00,68.4,56.2,29.96,East,79,5.7,6.9,65,0.00,CLR,,0.00,WeatherDisplay:10.37,2013-10-31 21:01:00,
2013-10-31 17:02:00,68.5,56.3,29.96,East,80,5.7,6.9,65,0.00,CLR,,0.00,WeatherDisplay:10.37,2013-10-31 21:02:00,
2013-10-31 17:04:00,68.2,56.0,29.97,East,96,5.4,8.1,65,0.00,CLR,,0.00,WeatherDisplay:10.37,2013-10-31 21:04:00,
2013-10-31 17:05:00,68.5,56.3,29.97,ESE,109,4.3,8.1,65,0.00,CLR,,0.00,WeatherDisplay:10.37,2013-10-31 21:05:00,
2013-10-31 17:07:00,68.3,56.5,29.97,ESE,109,1.9,5.8,66,0.00,CLR,,0.00,WeatherDisplay:10.37,2013-10-31 21:07:00,
2013-10-31 17:09:00,68.5,56.7,29.98,ESE,120,0.8,5.8,66,0.00,CLR,,0.00,WeatherDisplay:10.37,2013-10-31 21:09:00,
2013-10-31 17:10:00,68.1,56.3,29.98,ESE,120,0.6,6.1,66,0.00,CLR,,0.00,WeatherDisplay:10.37,2013-10-31 21:10:00,
2013-10-31 17:12:00,68.5,56.7,29.98,East,92,4.9,8.1,66,0.00,CLR,,0.00,WeatherDisplay:10.37,2013-10-31 21:12:00,
2013-10-31 17:15:00,67.9,56.1,29.98,ESE,121,6.0,8.1,66,0.00,CLR,,0.00,WeatherDisplay:10.37,2013-10-31 21:15:00,
2013-10-31 17:16:00,68.2,56.4,29.98,ENE,61,2.2,6.9,66,0.00,CLR,,0.00,WeatherDisplay:10.37,2013-10-31 21:16:00,
2013-10-31 17:17:00,68.0,56.2,29.98,ESE,117,2.9,6.9,66,0.00,CLR,,0.00,WeatherDisplay:10.37,2013-10-31 21:17:00,
2013-10-31 17:18:00,68.3,56.5,29.98,SE,124,4.4,6.9,66,0.00,CLR,,0.00,WeatherDisplay:10.37,2013-10-31 21:18:00,
2013-10-31 17:20:00,68.1,56.3,29.98,East,95,0.6,3.5,66,0.00,CLR,,0.00,WeatherDisplay:10.37,2013-10-31 21:20:00,
2013-10-31 17:21:00,68.3,56.5,29.98,SE,124,3.9,5.8,66,0.00,CLR,,0.00,WeatherDisplay:10.37,2013-10-31 21:21:00,
2013-10-31 17:22:00,68.0,56.6,29.98,SSE,160,4.4,6.9,67,0.00,CLR,,0.00,WeatherDisplay:10.37,2013-10-31 21:22:00,
2013-10-31 17:23:00,68.0,56.6,29.98,SSE,165,3.8,5.8,67,0.00,CLR,,0.00,WeatherDisplay:10.37,2013-10-31 21:23:00,
2013-10-31 17:25:00,68.2,56.8,29.98,East,96,1.6,5.8,67,0.00,CLR,,0.00,WeatherDisplay:10.37,2013-10-31 21:25:00,
2013-10-31 17:26:00,68.1,56.7,29.98,East,79,3.2,5.9,67,0.00,CLR,,0.00,WeatherDisplay:10.37,2013-10-31 21:26:00,
2013-10-31 17:28:00,68.0,56.6,29.98,ENE,64,4.8,9.2,67,0.00,CLR,,0.00,WeatherDisplay:10.37,2013-10-31 21:28:00,
2013-10-31 17:30:00,67.8,56.4,29.98,SE,127,0.9,5.8,67,0.00,CLR,,0.00,WeatherDisplay:10.37,2013-10-31 21:30:00,
2013-10-31 17:31:00,68.2,56.8,29.98,East,92,0.7,5.5,67,0.00,CLR,,0.00,WeatherDisplay:10.37,2013-10-31 21:31:00,
2013-10-31 17:32:00,67.8,56.4,29.98,ESE,103,4.3,5.8,67,0.00,CLR,,0.00,WeatherDisplay:10.37,2013-10-31 21:32:00,
2013-10-31 17:33:00,67.8,56.4,29.98,SSE,150,4.7,5.8,67,0.00,CLR,,0.00,WeatherDisplay:10.37,2013-10-31 21:33:00,
2013-10-31 17:36:00,67.9,56.5,29.97,ESE,107,2.6,5.8,67,0.00,CLR,,0.00,WeatherDisplay:10.37,2013-10-31 21:36:00,
2013-10-31 17:37:00,68.2,56.8,29.97,SE,127,2.5,6.2,67,0.00,CLR,,0.00,WeatherDisplay:10.37,2013-10-31 21:37:00,
2013-10-31 17:38:00,67.7,56.3,29.97,SE,133,2.2,5.8,67,0.00,CLR,,0.00,WeatherDisplay:10.37,2013-10-31 21:38:00,
2013-10-31 17:39:00,67.7,56.3,29.97,SE,133,1.5,5.8,67,0.00,CLR,,0.00,WeatherDisplay:10.37,2013-10-31 21:39:00,
2013-10-31 17:41:00,67.9,56.5,29.97,SE,137,2.7,8.1,67,0.00,CLR,,0.00,WeatherDisplay:10.37,2013-10-31 21:41:00,
2013-10-31 17:42:00,67.5,56.2,29.97,SE,138,3.1,8.1,67,0.00,CLR,,0.00,WeatherDisplay:10.37,2013-10-31 21:42:00,
2013-10-31 17:43:00,67.7,56.3,29.97,ESE,119,0.4,9.6,67,0.00,CLR,,0.00,WeatherDisplay:10.37,2013-10-31 21:43:00,
2013-10-31 17:44:00,67.9,56.5,29.97,East,100,2.8,11.5,67,0.00,CLR,,0.00,WeatherDisplay:10.37,2013-10-31 21:44:00,
2013-10-31 17:46:00,67.6,55.8,29.97,ESE,103,3.8,8.1,66,0.00,CLR,,0.00,WeatherDisplay:10.37,2013-10-31 21:46:00,
2013-10-31 17:47:00,67.8,56.0,29.97,ESE,114,3.5,6.9,66,0.00,CLR,,0.00,WeatherDisplay:10.37,2013-10-31 21:47:00,
2013-10-31 17:49:00,67.4,55.6,29.97,East,88,3.9,6.9,66,0.00,CLR,,0.00,WeatherDisplay:10.37,2013-10-31 21:49:00,
2013-10-31 17:51:00,68.0,56.2,29.96,East,99,4.7,6.9,66,0.00,CLR,,0.00,WeatherDisplay:10.37,2013-10-31 21:51:00,
2013-10-31 17:52:00,67.4,55.6,29.96,East,86,4.6,6.9,66,0.00,CLR,,0.00,WeatherDisplay:10.37,2013-10-31 21:52:00,
2013-10-31 17:54:00,67.9,56.1,29.96,ENE,59,0.0,4.6,66,0.00,CLR,,0.00,WeatherDisplay:10.37,2013-10-31 21:54:00,
2013-10-31 17:57:00,67.8,56.0,29.96,ENE,65,1.6,4.6,66,0.00,CLR,,0.00,WeatherDisplay:10.37,2013-10-31 21:57:00,
2013-10-31 17:58:00,67.4,55.6,29.96,East,88,1.9,5.8,66,0.00,CLR,,0.00,WeatherDisplay:10.37,2013-10-31 21:58:00,
2013-10-31 17:59:00,67.8,56.0,29.96,ESE,119,0.9,5.8,66,0.00,CLR,,0.00,WeatherDisplay:10.37,2013-10-31 21:59:00,
2013-10-31 18:02:00,67.7,55.9,29.96,East,90,0.0,0.0,66,0.00,CLR,,0.00,WeatherDisplay:10.37,2013-10-31 22:02:00,
2013-10-31 18:03:00,67.8,56.4,29.96,East,90,0.6,3.5,67,0.00,CLR,,0.00,WeatherDisplay:10.37,2013-10-31 22:03:00,
2013-10-31 18:04:00,67.3,55.5,29.96,East,97,3.1,8.1,66,0.00,CLR,,0.00,WeatherDisplay:10.37,2013-10-31 22:04:00,
2013-10-31 18:05:00,67.1,55.8,29.96,East,97,1.9,4.6,67,0.00,CLR,,0.00,WeatherDisplay:10.37,2013-10-31 22:05:00,
2013-10-31 18:07:00,67.3,56.0,29.95,SE,131,3.6,8.1,67,0.00,CLR,,0.00,WeatherDisplay:10.37,2013-10-31 22:07:00,
2013-10-31 18:08:00,67.5,56.2,29.95,East,96,4.2,6.9,67,0.00,CLR,,0.00,WeatherDisplay:10.37,2013-10-31 22:08:00,
2013-10-31 18:09:00,67.9,56.5,29.95,ESE,102,1.0,5.0,67,0.00,CLR,,0.00,WeatherDisplay:10.37,2013-10-31 22:09:00,
2013-10-31 18:10:00,67.4,56.1,29.95,East,88,2.5,5.8,67,0.00,CLR,,0.00,WeatherDisplay:10.37,2013-10-31 22:10:00,
2013-10-31 18:13:00,67.2,55.9,29.95,SE,128,0.3,5.8,67,0.00,CLR,,0.00,WeatherDisplay:10.37,2013-10-31 22:13:00,
2013-10-31 18:14:00,67.4,56.1,29.95,ESE,116,4.1,5.8,67,0.00,CLR,,0.00,WeatherDisplay:10.37,2013-10-31 22:14:00,
2013-10-31 18:15:00,67.4,56.1,29.95,ESE,117,3.8,5.8,67,0.00,CLR,,0.00,WeatherDisplay:10.37,2013-10-31 22:15:00,
2013-10-31 18:18:00,67.7,56.3,29.95,SE,124,3.1,5.8,67,0.00,CLR,,0.00,WeatherDisplay:10.37,2013-10-31 22:18:00,
2013-10-31 18:20:00,67.2,55.9,29.95,ESE,104,4.6,6.9,67,0.00,CLR,,0.00,WeatherDisplay:10.37,2013-10-31 22:20:00,
2013-10-31 18:21:00,67.3,56.0,29.95,East,96,4.6,6.9,67,0.00,CLR,,0.00,WeatherDisplay:10.37,2013-10-31 22:21:00,
2013-10-31 18:23:00,67.3,56.0,29.95,ESE,121,0.0,2.3,67,0.00,CLR,,0.00,WeatherDisplay:10.37,2013-10-31 22:23:00,
2013-10-31 18:25:00,67.4,56.1,29.95,ESE,121,0.0,0.0,67,0.00,CLR,,0.00,WeatherDisplay:10.37,2013-10-31 22:25:00,
2013-10-31 18:27:00,67.2,55.9,29.95,SSE,165,7.4,9.2,67,0.00,CLR,,0.00,WeatherDisplay:10.37,2013-10-31 22:27:00,
2013-10-31 18:28:00,67.1,55.8,29.96,East,88,5.5,11.5,67,0.00,CLR,,0.00,WeatherDisplay:10.37,2013-10-31 22:28:00,
2013-10-31 18:30:00,67.3,56.0,29.95,ENE,71,0.0,4.6,67,0.00,CLR,,0.00,WeatherDisplay:10.37,2013-10-31 22:30:00,
2013-10-31 18:31:00,67.5,55.7,29.95,SE,126,3.3,4.7,66,0.00,CLR,,0.00,WeatherDisplay:10.37,2013-10-31 22:31:00,
2013-10-31 18:33:00,67.6,55.8,29.96,SE,126,0.0,0.0,66,0.00,CLR,,0.00,WeatherDisplay:10.37,2013-10-31 22:33:00,
2013-10-31 18:34:00,67.4,55.6,29.96,SE,126,0.0,0.0,66,0.00,CLR,,0.00,WeatherDisplay:10.37,2013-10-31 22:34:00,
2013-10-31 18:35:00,67.3,56.0,29.96,SE,126,0.0,0.0,67,0.00,CLR,,0.00,WeatherDisplay:10.37,2013-10-31 22:35:00,
2013-10-31 18:36:00,67.1,55.8,29.96,SE,126,0.0,0.0,67,0.00,CLR,,0.00,WeatherDisplay:10.37,2013-10-31 22:36:00,
2013-10-31 18:37:00,67.7,56.3,29.96,East,89,0.6,0.0,67,0.00,CLR,,0.00,WeatherDisplay:10.37,2013-10-31 22:37:00,
2013-10-31 18:38:00,67.0,55.3,29.96,SSW,193,4.9,9.2,66,0.00,CLR,,0.00,WeatherDisplay:10.37,2013-10-31 22:38:00,
2013-10-31 18:39:00,67.3,55.5,29.95,ENE,62,3.1,9.2,66,0.00,CLR,,0.00,WeatherDisplay:10.37,2013-10-31 22:39:00,
2013-10-31 18:41:00,67.3,55.5,29.95,ENE,62,0.0,3.5,66,0.00,CLR,,0.00,WeatherDisplay:10.37,2013-10-31 22:41:00,
2013-10-31 18:42:00,67.3,56.0,29.95,ESE,103,1.6,5.8,67,0.00,CLR,,0.00,WeatherDisplay:10.37,2013-10-31 22:42:00,
2013-10-31 18:44:00,67.3,56.0,29.95,East,89,3.2,5.8,67,0.00,CLR,,0.00,WeatherDisplay:10.37,2013-10-31 22:44:00,
2013-10-31 18:46:00,67.1,55.8,29.95,ENE,62,2.5,5.8,67,0.00,CLR,,0.00,WeatherDisplay:10.37,2013-10-31 22:46:00,
2013-10-31 18:47:00,67.4,56.1,29.95,NE,40,1.8,5.8,67,0.00,CLR,,0.00,WeatherDisplay:10.37,2013-10-31 22:47:00,
2013-10-31 18:49:00,67.0,55.7,29.96,ESE,103,2.3,8.1,67,0.00,CLR,,0.00,WeatherDisplay:10.37,2013-10-31 22:49:00,
2013-10-31 18:51:00,67.4,56.1,29.95,ESE,106,0.0,2.3,67,0.00,CLR,,0.00,WeatherDisplay:10.37,2013-10-31 22:51:00,
2013-10-31 18:52:00,67.3,56.0,29.95,SE,144,2.3,10.4,67,0.00,CLR,,0.00,WeatherDisplay:10.37,2013-10-31 22:52:00,
2013-10-31 18:54:00,66.9,55.6,29.95,NE,54,2.6,8.1,67,0.00,CLR,,0.00,WeatherDisplay:10.37,2013-10-31 22:54:00,
2013-10-31 18:56:00,67.6,56.2,29.95,ESE,106,6.5,10.4,67,0.00,CLR,,0.00,WeatherDisplay:10.37,2013-10-31 22:56:00,
2013-10-31 18:57:00,67.1,55.8,29.95,East,83,4.2,10.4,67,0.00,CLR,,0.00,WeatherDisplay:10.37,2013-10-31 22:57:00,
2013-10-31 18:59:00,67.3,56.0,29.95,SE,136,3.4,9.2,67,0.00,CLR,,0.00,WeatherDisplay:10.37,2013-10-31 22:59:00,
2013-10-31 19:00:00,67.5,56.2,29.95,SE,124,2.3,6.9,67,0.00,CLR,,0.00,WeatherDisplay:10.37,2013-10-31 23:00:00,
2013-10-31 19:01:00,66.9,55.6,29.95,SE,124,0.0,4.6,67,0.00,CLR,,0.00,WeatherDisplay:10.37,2013-10-31 23:01:00,
2013-10-31 19:02:00,67.3,56.0,29.95,ESE,112,0.3,6.0,67,0.00,CLR,,0.00,WeatherDisplay:10.37,2013-10-31 23:02:00,
2013-10-31 19:04:00,67.1,55.8,29.95,ESE,114,5.3,8.1,67,0.00,CLR,,0.00,WeatherDisplay:10.37,2013-10-31 23:04:00,
2013-10-31 19:06:00,67.3,56.0,29.95,SE,131,5.2,11.5,67,0.00,CLR,,0.00,WeatherDisplay:10.37,2013-10-31 23:06:00,
2013-10-31 19:07:00,67.2,55.9,29.95,ESE,112,4.0,11.5,67,0.00,CLR,,0.00,WeatherDisplay:10.37,2013-10-31 23:07:00,
2013-10-31 19:08:00,67.0,55.7,29.95,ESE,112,0.0,5.8,67,0.00,CLR,,0.00,WeatherDisplay:10.37,2013-10-31 23:08:00,
2013-10-31 19:10:00,67.1,55.8,29.95,ESE,119,4.5,8.1,67,0.00,CLR,,0.00,WeatherDisplay:10.37,2013-10-31 23:10:00,
2013-10-31 19:11:00,66.9,55.6,29.95,SSE,154,1.6,5.8,67,0.00,CLR,,0.00,WeatherDisplay:10.37,2013-10-31 23:11:00,
2013-10-31 19:12:00,67.0,55.7,29.95,ESE,104,2.6,5.8,67,0.00,CLR,,0.00,WeatherDisplay:10.37,2013-10-31 23:12:00,
2013-10-31 19:13:00,67.0,55.7,29.95,ESE,104,0.0,1.1,67,0.00,CLR,,0.00,WeatherDisplay:10.37,2013-10-31 23:13:00,
2013-10-31 19:15:00,67.3,56.0,29.95,SSE,150,0.0,0.0,67,0.00,CLR,,0.00,WeatherDisplay:10.37,2013-10-31 23:15:00,
2013-10-31 19:16:00,67.4,56.1,29.95,SSE,150,0.0,0.0,67,0.00,CLR,,0.00,WeatherDisplay:10.37,2013-10-31 23:16:00,
2013-10-31 19:17:00,67.1,55.8,29.95,SSE,167,2.2,5.8,67,0.00,CLR,,0.00,WeatherDisplay:10.37,2013-10-31 23:17:00,
2013-10-31 19:18:00,67.1,55.8,29.95,SE,124,2.5,5.8,67,0.00,CLR,,0.00,WeatherDisplay:10.37,2013-10-31 23:18:00,
2013-10-31 19:20:00,67.2,56.3,29.95,SE,124,1.5,4.7,68,0.00,CLR,,0.00,WeatherDisplay:10.37,2013-10-31 23:20:00,
2013-10-31 19:22:00,66.9,56.0,29.95,East,93,1.2,5.8,68,0.00,CLR,,0.00,WeatherDisplay:10.37,2013-10-31 23:22:00,
2013-10-31 19:23:00,67.2,56.3,29.95,East,93,0.0,0.0,68,0.00,CLR,,0.00,WeatherDisplay:10.37,2013-10-31 23:23:00,
2013-10-31 19:25:00,67.2,56.3,29.95,East,93,0.0,0.0,68,0.00,CLR,,0.00,WeatherDisplay:10.37,2013-10-31 23:25:00,
2013-10-31 19:26:00,67.4,56.5,29.95,East,93,0.0,0.0,68,0.00,CLR,,0.00,WeatherDisplay:10.37,2013-10-31 23:26:00,
2013-10-31 19:27:00,67.3,56.4,29.95,East,93,0.0,0.0,68,0.00,CLR,,0.00,WeatherDisplay:10.37,2013-10-31 23:27:00,
2013-10-31 19:28:00,67.2,56.3,29.95,East,83,1.1,4.9,68,0.00,CLR,,0.00,WeatherDisplay:10.37,2013-10-31 23:28:00,
2013-10-31 19:31:00,67.1,56.2,29.96,ESE,107,0.5,4.6,68,0.00,CLR,,0.00,WeatherDisplay:10.37,2013-10-31 23:31:00,
2013-10-31 19:32:00,67.0,56.1,29.96,ESE,110,1.4,4.6,68,0.00,CLR,,0.00,WeatherDisplay:10.37,2013-10-31 23:32:00,
2013-10-31 19:33:00,67.2,56.3,29.96,ESE,110,0.0,4.6,68,0.00,CLR,,0.00,WeatherDisplay:10.37,2013-10-31 23:33:00,
2013-10-31 19:34:00,67.0,56.1,29.96,ESE,110,0.0,0.0,68,0.00,CLR,,0.00,WeatherDisplay:10.37,2013-10-31 23:34:00,
2013-10-31 19:36:00,67.2,56.3,29.95,ESE,110,0.0,0.0,68,0.00,CLR,,0.00,WeatherDisplay:10.37,2013-10-31 23:36:00,
2013-10-31 19:37:00,67.0,56.1,29.95,ESE,110,0.0,0.0,68,0.00,CLR,,0.00,WeatherDisplay:10.37,2013-10-31 23:37:00,
2013-10-31 19:38:00,67.2,56.3,29.95,ESE,123,0.1,4.7,68,0.00,CLR,,0.00,WeatherDisplay:10.37,2013-10-31 23:38:00,
2013-10-31 19:39:00,67.4,56.5,29.95,SE,136,4.1,5.8,68,0.00,CLR,,0.00,WeatherDisplay:10.37,2013-10-31 23:39:00,
2013-10-31 19:41:00,67.2,56.3,29.95,SE,136,0.0,0.0,68,0.00,CLR,,0.00,WeatherDisplay:10.37,2013-10-31 23:41:00,
2013-10-31 19:42:00,67.1,56.2,29.95,SE,136,0.0,0.0,68,0.00,CLR,,0.00,WeatherDisplay:10.37,2013-10-31 23:42:00,
2013-10-31 19:43:00,67.1,56.2,29.95,SE,136,0.0,0.0,68,0.00,CLR,,0.00,WeatherDisplay:10.37,2013-10-31 23:43:00,
2013-10-31 19:44:00,66.9,56.0,29.95,East,100,1.6,3.5,68,0.00,CLR,,0.00,WeatherDisplay:10.37,2013-10-31 23:44:00,
2013-10-31 19:46:00,67.1,56.2,29.95,East,79,4.2,6.9,68,0.00,CLR,,0.00,WeatherDisplay:10.37,2013-10-31 23:46:00,
2013-10-31 19:47:00,67.2,56.3,29.95,ENE,61,4.0,6.9,68,0.00,CLR,,0.00,WeatherDisplay:10.37,2013-10-31 23:47:00,
2013-10-31 19:48:00,67.0,56.1,29.95,East,97,3.9,7.3,68,0.00,CLR,,0.00,WeatherDisplay:10.37,2013-10-31 23:48:00,
2013-10-31 19:49:00,67.2,56.3,29.95,ESE,113,5.6,8.1,68,0.00,CLR,,0.00,WeatherDisplay:10.37,2013-10-31 23:49:00,
2013-10-31 19:51:00,67.0,56.1,29.95,East,90,2.4,5.8,68,0.00,CLR,,0.00,WeatherDisplay:10.37,2013-10-31 23:51:00,
2013-10-31 19:53:00,67.1,56.2,29.95,ENE,76,3.5,6.9,68,0.00,CLR,,0.00,WeatherDisplay:10.37,2013-10-31 23:53:00,
2013-10-31 19:54:00,67.0,56.1,29.95,East,80,2.9,9.2,68,0.00,CLR,,0.00,WeatherDisplay:10.37,2013-10-31 23:54:00,
2013-10-31 19:56:00,66.8,55.9,29.95,ESE,117,3.0,8.1,68,0.00,CLR,,0.00,WeatherDisplay:10.37,2013-10-31 23:56:00,
2013-10-31 19:58:00,66.8,56.3,29.95,SE,126,5.9,10.4,69,0.00,CLR,,0.00,WeatherDisplay:10.37,2013-10-31 23:58:00,
2013-10-31 19:59:00,67.0,56.5,29.95,East,93,4.0,8.1,69,0.00,CLR,,0.00,WeatherDisplay:10.37,2013-10-31 23:59:00,
2013-10-31 20:02:00,66.8,56.3,29.95,SE,136,5.4,5.8,69,0.00,CLR,,0.00,WeatherDisplay:10.37,2013-11-01 00:02:00,
2013-10-31 20:03:00,66.9,56.4,29.95,East,99,3.9,5.8,69,0.00,CLR,,0.00,WeatherDisplay:10.37,2013-11-01 00:03:00,
2013-10-31 20:04:00,66.9,56.4,29.95,East,85,2.1,4.6,69,0.00,CLR,,0.00,WeatherDisplay:10.37,2013-11-01 00:04:00,
2013-10-31 20:05:00,66.9,56.4,29.95,ESE,123,3.6,5.9,69,0.00,CLR,,0.00,WeatherDisplay:10.37,2013-11-01 00:05:00,
2013-10-31 20:07:00,66.8,56.3,29.95,ENE,62,1.9,10.1,69,0.00,CLR,,0.00,WeatherDisplay:10.37,2013-11-01 00:07:00,
2013-10-31 20:08:00,66.9,56.4,29.95,ESE,119,6.1,11.5,69,0.00,CLR,,0.00,WeatherDisplay:10.37,2013-11-01 00:08:00,
2013-10-31 20:09:00,66.8,56.3,29.95,East,95,5.8,11.5,69,0.00,CLR,,0.00,WeatherDisplay:10.37,2013-11-01 00:09:00,
2013-10-31 20:10:00,67.0,56.5,29.95,ENE,65,5.4,6.9,69,0.00,CLR,,0.00,WeatherDisplay:10.37,2013-11-01 00:10:00,
2013-10-31 20:12:00,66.8,56.3,29.95,East,82,5.3,8.1,69,0.00,CLR,,0.00,WeatherDisplay:10.37,2013-11-01 00:12:00,
2013-10-31 20:13:00,66.6,56.1,29.95,ENE,75,3.7,5.8,69,0.00,CLR,,0.00,WeatherDisplay:10.37,2013-11-01 00:13:00,
2013-10-31 20:14:00,66.7,56.2,29.94,ESE,109,4.0,6.9,69,0.00,CLR,,0.00,WeatherDisplay:10.37,2013-11-01 00:14:00,
2013-10-31 20:15:00,66.4,55.9,29.94,East,86,4.8,6.9,69,0.00,CLR,,0.00,WeatherDisplay:10.37,2013-11-01 00:15:00,
2013-10-31 20:17:00,67.3,57.2,29.94,East,93,3.4,5.8,70,0.00,CLR,,0.00,WeatherDisplay:10.37,2013-11-01 00:17:00,
2013-10-31 20:18:00,66.8,56.7,29.95,SE,126,1.2,5.8,70,0.00,CLR,,0.00,WeatherDisplay:10.37,2013-11-01 00:18:00,
2013-10-31 20:19:00,66.3,56.2,29.95,SE,126,0.0,4.6,70,0.00,CLR,,0.00,WeatherDisplay:10.37,2013-11-01 00:19:00,
2013-10-31 20:20:00,66.9,56.8,29.95,East,82,0.8,4.8,70,0.00,CLR,,0.00,WeatherDisplay:10.37,2013-11-01 00:20:00,
2013-10-31 20:21:00,66.8,56.7,29.95,East,83,7.0,10.4,70,0.00,CLR,,0.00,WeatherDisplay:10.37,2013-11-01 00:21:00,
2013-10-31 20:23:00,66.5,56.4,29.95,East,86,4.9,8.1,70,0.00,CLR,,0.00,WeatherDisplay:10.37,2013-11-01 00:23:00,
2013-10-31 20:25:00,66.8,56.7,29.95,SE,126,2.5,5.8,70,0.00,CLR,,0.00,WeatherDisplay:10.37,2013-11-01 00:25:00,
2013-10-31 20:26:00,66.8,56.7,29.94,East,85,4.9,9.2,70,0.00,CLR,,0.00,WeatherDisplay:10.37,2013-11-01 00:26:00,
2013-10-31 20:28:00,66.4,56.3,29.94,SE,136,8.3,12.7,70,0.00,CLR,,0.00,WeatherDisplay:10.37,2013-11-01 00:28:00,
2013-10-31 20:30:00,67.0,56.9,29.94,ESE,113,7.1,12.7,70,0.00,CLR,,0.00,WeatherDisplay:10.37,2013-11-01 00:30:00,
2013-10-31 20:31:00,66.6,56.5,29.94,East,80,4.5,6.9,70,0.00,CLR,,0.00,WeatherDisplay:10.37,2013-11-01 00:31:00,
2013-10-31 20:32:00,67.0,56.9,29.94,ESE,116,4.8,6.9,70,0.00,CLR,,0.00,WeatherDisplay:10.37,2013-11-01 00:32:00,
2013-10-31 20:33:00,66.7,56.6,29.94,ENE,65,4.6,5.8,70,0.00,CLR,,0.00,WeatherDisplay:10.37,2013-11-01 00:33:00,
2013-10-31 20:34:00,66.7,56.6,29.94,East,86,4.6,6.9,70,0.00,CLR,,0.00,WeatherDisplay:10.37,2013-11-01 00:34:00,
2013-10-31 20:36:00,66.8,56.7,29.94,ENE,75,4.0,9.2,70,0.00,CLR,,0.00,WeatherDisplay:10.37,2013-11-01 00:36:00,
2013-10-31 20:37:00,66.7,57.0,29.94,East,80,7.0,12.7,71,0.00,CLR,,0.00,WeatherDisplay:10.37,2013-11-01 00:37:00,
2013-10-31 20:39:00,67.0,56.9,29.94,ENE,58,2.8,9.2,70,0.00,CLR,,0.00,WeatherDisplay:10.37,2013-11-01 00:39:00,
2013-10-31 20:40:00,66.9,56.8,29.94,ESE,103,2.5,5.8,70,0.00,CLR,,0.00,WeatherDisplay:10.37,2013-11-01 00:40:00,
2013-10-31 20:41:00,66.4,56.7,29.94,ESE,119,2.8,5.8,71,0.00,CLR,,0.00,WeatherDisplay:10.37,2013-11-01 00:41:00,
2013-10-31 20:42:00,66.8,57.1,29.94,East,96,3.2,6.6,71,0.00,CLR,,0.00,WeatherDisplay:10.37,2013-11-01 00:42:00,
2013-10-31 20:43:00,66.9,57.2,29.94,ENE,66,5.5,6.9,71,0.00,CLR,,0.00,WeatherDisplay:10.37,2013-11-01 00:43:00,
2013-10-31 20:44:00,66.4,56.7,29.94,SE,137,6.6,9.2,71,0.00,CLR,,0.00,WeatherDisplay:10.37,2013-11-01 00:44:00,
2013-10-31 20:46:00,66.9,57.2,29.94,ESE,116,7.0,10.4,71,0.00,CLR,,0.00,WeatherDisplay:10.37,2013-11-01 00:46:00,
2013-10-31 20:47:00,66.4,56.7,29.94,SE,127,4.5,10.4,71,0.00,CLR,,0.00,WeatherDisplay:10.37,2013-11-01 00:47:00,
2013-10-31 20:48:00,66.8,57.1,29.93,SE,127,3.2,9.0,71,0.00,CLR,,0.00,WeatherDisplay:10.37,2013-11-01 00:48:00,
2013-10-31 20:49:00,66.8,57.1,29.93,SE,138,5.3,9.2,71,0.00,CLR,,0.00,WeatherDisplay:10.37,2013-11-01 00:49:00,
2013-10-31 20:51:00,66.7,57.0,29.93,East,92,5.8,9.2,71,0.00,CLR,,0.00,WeatherDisplay:10.37,2013-11-01 00:51:00,
2013-10-31 20:52:00,66.4,56.7,29.93,East,92,5.8,8.2,71,0.00,CLR,,0.00,WeatherDisplay:10.37,2013-11-01 00:52:00,
2013-10-31 20:53:00,66.8,57.1,29.93,SE,126,4.7,8.1,71,0.00,CLR,,0.00,WeatherDisplay:10.37,2013-11-01 00:53:00,
2013-10-31 20:54:00,66.7,57.0,29.93,ENE,68,5.3,6.9,71,0.00,CLR,,0.00,WeatherDisplay:10.37,2013-11-01 00:54:00,
2013-10-31 20:55:00,66.6,56.9,29.93,ESE,110,3.1,8.1,71,0.00,CLR,,0.00,WeatherDisplay:10.37,2013-11-01 00:55:00,
2013-10-31 20:56:00,66.5,56.8,29.93,ESE,103,3.3,6.4,71,0.00,CLR,,0.00,WeatherDisplay:10.37,2013-11-01 00:56:00,
2013-10-31 20:57:00,66.8,57.1,29.93,NE,56,4.2,6.9,71,0.00,CLR,,0.00,WeatherDisplay:10.37,2013-11-01 00:57:00,
2013-10-31 20:58:00,66.7,57.0,29.93,ESE,123,7.5,10.4,71,0.00,CLR,,0.00,WeatherDisplay:10.37,2013-11-01 00:58:00,
2013-10-31 20:59:00,66.2,56.5,29.93,NE,56,3.8,10.4,71,0.00,CLR,,0.00,WeatherDisplay:10.37,2013-11-01 00:59:00,
2013-10-31 21:00:00,66.4,56.7,29.92,NE,56,0.0,6.9,71,0.00,CLR,,0.00,WeatherDisplay:10.37,2013-11-01 01:00:00,
2013-10-31 21:01:00,66.3,56.6,29.92,NE,56,0.0,0.0,71,0.00,CLR,,0.00,WeatherDisplay:10.37,2013-11-01 01:01:00,
2013-10-31 21:02:00,66.2,56.9,29.93,NE,56,0.0,0.0,72,0.00,CLR,,0.00,WeatherDisplay:10.37,2013-11-01 01:02:00,
2013-10-31 21:04:00,66.3,57.0,29.93,East,97,3.4,7.2,72,0.00,CLR,,0.00,WeatherDisplay:10.37,2013-11-01 01:04:00,
2013-10-31 21:05:00,66.3,57.0,29.93,SSE,154,5.2,6.9,72,0.00,CLR,,0.00,WeatherDisplay:10.37,2013-11-01 01:05:00,
2013-10-31 21:06:00,66.4,57.1,29.93,ENE,59,3.9,4.6,72,0.00,CLR,,0.00,WeatherDisplay:10.37,2013-11-01 01:06:00,
2013-10-31 21:07:00,66.2,56.9,29.94,ESE,120,4.2,6.9,72,0.00,CLR,,0.00,WeatherDisplay:10.37,2013-11-01 01:07:00,
2013-10-31 21:09:00,66.8,57.5,29.93,East,100,3.8,8.1,72,0.00,CLR,,0.00,WeatherDisplay:10.37,2013-11-01 01:09:00,
2013-10-31 21:10:00,66.6,57.3,29.93,ESE,119,1.1,4.6,72,0.00,CLR,,0.00,WeatherDisplay:10.37,2013-11-01 01:10:00,
2013-10-31 21:11:00,66.2,56.9,29.93,ESE,119,0.2,3.5,72,0.00,CLR,,0.00,WeatherDisplay:10.37,2013-11-01 01:11:00,
2013-10-31 21:12:00,66.4,57.1,29.93,SE,140,6.0,10.4,72,0.00,CLR,,0.00,WeatherDisplay:10.37,2013-11-01 01:12:00,
2013-10-31 21:13:00,66.1,56.8,29.93,ESE,116,2.9,11.5,72,0.00,CLR,,0.00,WeatherDisplay:10.37,2013-11-01 01:13:00,
2013-10-31 21:15:00,66.2,56.9,29.94,East,90,1.4,6.9,72,0.00,CLR,,0.00,WeatherDisplay:10.37,2013-11-01 01:15:00,
2013-10-31 21:16:00,66.6,57.3,29.93,East,86,6.7,8.1,72,0.00,CLR,,0.00,WeatherDisplay:10.37,2013-11-01 01:16:00,
2013-10-31 21:17:00,66.7,57.4,29.93,East,92,8.1,9.2,72,0.00,CLR,,0.00,WeatherDisplay:10.37,2013-11-01 01:17:00,
2013-10-31 21:18:00,66.4,57.1,29.93,ESE,121,3.5,11.5,72,0.00,CLR,,0.00,WeatherDisplay:10.37,2013-11-01 01:18:00,
2013-10-31 21:20:00,66.2,56.9,29.92,East,80,5.2,6.9,72,0.00,CLR,,0.00,WeatherDisplay:10.37,2013-11-01 01:20:00,
2013-10-31 21:21:00,66.1,57.2,29.92,East,90,5.6,8.1,73,0.00,CLR,,0.00,WeatherDisplay:10.37,2013-11-01 01:21:00,
2013-10-31 21:22:00,66.4,57.5,29.92,East,99,4.9,8.1,73,0.00,CLR,,0.00,WeatherDisplay:10.37,2013-11-01 01:22:00,
2013-10-31 21:23:00,66.1,57.2,29.92,East,99,0.0,8.1,73,0.00,CLR,,0.00,WeatherDisplay:10.37,2013-11-01 01:23:00,
2013-10-31 21:25:00,66.2,57.3,29.93,East,90,2.7,3.4,73,0.00,CLR,,0.00,WeatherDisplay:10.37,2013-11-01 01:25:00,
2013-10-31 21:26:00,66.8,57.9,29.93,East,92,3.6,6.9,73,0.00,CLR,,0.00,WeatherDisplay:10.37,2013-11-01 01:26:00,
2013-10-31 21:27:00,66.1,57.2,29.92,ESE,114,0.0,5.8,73,0.00,CLR,,0.00,WeatherDisplay:10.37,2013-11-01 01:27:00,
2013-10-31 21:29:00,66.5,57.6,29.92,East,85,6.0,9.2,73,0.00,CLR,,0.00,WeatherDisplay:10.37,2013-11-01 01:29:00,
2013-10-31 21:30:00,66.2,57.3,29.92,East,90,4.6,8.1,73,0.00,CLR,,0.00,WeatherDisplay:10.37,2013-11-01 01:30:00,
2013-10-31 21:31:00,66.3,57.4,29.92,ESE,109,4.7,6.9,73,0.00,CLR,,0.00,WeatherDisplay:10.37,2013-11-01 01:31:00,
2013-10-31 21:32:00,65.8,56.9,29.92,ESE,110,4.7,5.8,73,0.00,CLR,,0.00,WeatherDisplay:10.37,2013-11-01 01:32:00,
2013-10-31 21:33:00,66.3,57.4,29.92,ESE,110,0.0,5.8,73,0.00,CLR,,0.00,WeatherDisplay:10.37,2013-11-01 01:33:00,
2013-10-31 21:34:00,66.4,57.5,29.92,East,99,2.2,7.3,73,0.00,CLR,,0.00,WeatherDisplay:10.37,2013-11-01 01:34:00,
2013-10-31 21:36:00,66.2,57.3,29.92,East,82,4.7,6.9,73,0.00,CLR,,0.00,WeatherDisplay:10.37,2013-11-01 01:36:00,
2013-10-31 21:37:00,66.3,57.4,29.91,East,82,5.7,6.9,73,0.00,CLR,,0.00,WeatherDisplay:10.37,2013-11-01 01:37:00,
2013-10-31 21:38:00,66.1,57.2,29.91,East,92,6.1,10.4,73,0.00,CLR,,0.00,WeatherDisplay:10.37,2013-11-01 01:38:00,
2013-10-31 21:39:00,66.0,57.1,29.91,East,99,4.6,6.9,73,0.00,CLR,,0.00,WeatherDisplay:10.37,2013-11-01 01:39:00,
2013-10-31 21:41:00,66.1,57.2,29.91,East,80,0.5,5.3,73,0.00,CLR,,0.00,WeatherDisplay:10.37,2013-11-01 01:41:00,
2013-10-31 21:42:00,66.3,57.4,29.91,ESE,106,2.9,5.8,73,0.00,CLR,,0.00,WeatherDisplay:10.37,2013-11-01 01:42:00,
2013-10-31 21:43:00,66.3,57.8,29.92,ESE,106,0.0,4.6,74,0.00,CLR,,0.00,WeatherDisplay:10.37,2013-11-01 01:43:00,
2013-10-31 21:44:00,66.1,57.6,29.91,East,86,1.4,7.1,74,0.00,CLR,,0.00,WeatherDisplay:10.37,2013-11-01 01:44:00,
2013-10-31 21:46:00,66.1,57.6,29.91,SE,134,7.9,13.8,74,0.00,CLR,,0.00,WeatherDisplay:10.37,2013-11-01 01:46:00,
2013-10-31 21:47:00,66.2,57.7,29.92,ENE,69,3.6,13.8,74,0.00,CLR,,0.00,WeatherDisplay:10.37,2013-11-01 01:47:00,
2013-10-31 21:48:00,66.4,57.9,29.91,ENE,66,0.3,5.8,74,0.00,CLR,,0.00,WeatherDisplay:10.37,2013-11-01 01:48:00,
2013-10-31 21:50:00,66.2,57.7,29.92,East,90,1.6,5.8,74,0.00,CLR,,0.00,WeatherDisplay:10.37,2013-11-01 01:50:00,
2013-10-31 21:51:00,66.6,58.1,29.92,ESE,107,3.2,5.8,74,0.00,CLR,,0.00,WeatherDisplay:10.37,2013-11-01 01:51:00,
2013-10-31 21:52:00,66.0,57.5,29.92,East,95,0.5,3.5,74,0.00,CLR,,0.00,WeatherDisplay:10.37,2013-11-01 01:52:00,
2013-10-31 21:53:00,66.0,57.5,29.92,East,95,0.0,3.5,74,0.00,CLR,,0.00,WeatherDisplay:10.37,2013-11-01 01:53:00,
2013-10-31 21:54:00,66.1,57.6,29.91,East,95,0.0,0.0,74,0.00,CLR,,0.00,WeatherDisplay:10.37,2013-11-01 01:54:00,
2013-10-31 21:55:00,65.8,57.3,29.91,East,95,0.0,0.0,74,0.00,CLR,,0.00,WeatherDisplay:10.37,2013-11-01 01:55:00,
2013-10-31 21:56:00,66.2,57.7,29.91,East,95,0.0,0.0,74,0.00,CLR,,0.00,WeatherDisplay:10.37,2013-11-01 01:56:00,
2013-10-31 21:57:00,66.3,57.8,29.91,East,95,0.0,0.0,74,0.00,CLR,,0.00,WeatherDisplay:10.37,2013-11-01 01:57:00,
2013-10-31 21:59:00,66.3,57.8,29.91,East,95,0.0,0.0,74,0.00,CLR,,0.00,WeatherDisplay:10.37,2013-11-01 01:59:00,
2013-10-31 22:01:00,66.3,57.8,29.91,East,95,0.0,0.0,74,0.00,CLR,,0.00,WeatherDisplay:10.37,2013-11-01 02:01:00,
2013-10-31 22:02:00,66.2,57.7,29.91,East,95,0.0,0.0,74,0.00,CLR,,0.00,WeatherDisplay:10.37,2013-11-01 02:02:00,
2013-10-31 22:04:00,66.0,57.5,29.91,East,95,0.0,0.0,74,0.00,CLR,,0.00,WeatherDisplay:10.37,2013-11-01 02:04:00,
2013-10-31 22:06:00,66.0,57.5,29.91,SSE,152,6.2,8.6,74,0.00,CLR,,0.00,WeatherDisplay:10.37,2013-11-01 02:06:00,
2013-10-31 22:08:00,66.4,57.9,29.91,ENE,65,3.1,6.9,74,0.00,CLR,,0.00,WeatherDisplay:10.37,2013-11-01 02:08:00,
2013-10-31 22:09:00,66.6,58.1,29.90,East,97,5.1,8.1,74,0.00,CLR,,0.00,WeatherDisplay:10.37,2013-11-01 02:09:00,
2013-10-31 22:11:00,66.0,57.5,29.90,ENE,69,3.4,6.9,74,0.00,CLR,,0.00,WeatherDisplay:10.37,2013-11-01 02:11:00,
2013-10-31 22:12:00,66.3,57.8,29.90,East,97,5.9,10.4,74,0.00,CLR,,0.00,WeatherDisplay:10.37,2013-11-01 02:12:00,
2013-10-31 22:13:00,66.3,57.8,29.90,ESE,120,3.5,6.9,74,0.00,CLR,,0.00,WeatherDisplay:10.37,2013-11-01 02:13:00,
2013-10-31 22:15:00,65.7,57.2,29.90,SE,127,0.0,0.0,74,0.00,CLR,,0.00,WeatherDisplay:10.37,2013-11-01 02:15:00,
2013-10-31 22:16:00,66.1,57.6,29.90,SE,138,2.4,8.1,74,0.00,CLR,,0.00,WeatherDisplay:10.37,2013-11-01 02:16:00,
2013-10-31 22:17:00,66.2,57.7,29.90,SW,215,3.4,5.9,74,0.00,CLR,,0.00,WeatherDisplay:10.37,2013-11-01 02:17:00,
2013-10-31 22:18:00,66.2,58.0,29.90,East,92,4.6,8.1,75,0.00,CLR,,0.00,WeatherDisplay:10.37,2013-11-01 02:18:00,
2013-10-31 22:20:00,65.9,57.4,29.90,East,96,2.6,4.6,74,0.00,CLR,,0.00,WeatherDisplay:10.37,2013-11-01 02:20:00,
2013-10-31 22:21:00,66.3,57.8,29.90,SE,136,1.7,5.8,74,0.00,CLR,,0.00,WeatherDisplay:10.37,2013-11-01 02:21:00,
2013-10-31 22:22:00,65.8,57.3,29.90,SE,136,0.0,6.9,74,0.00,CLR,,0.00,WeatherDisplay:10.37,2013-11-01 02:22:00,
2013-10-31 22:23:00,65.8,57.3,29.90,SE,136,0.0,0.0,74,0.00,CLR,,0.00,WeatherDisplay:10.37,2013-11-01 02:23:00,
2013-10-31 22:24:00,66.1,57.6,29.90,SE,126,2.7,6.9,74,0.00,CLR,,0.00,WeatherDisplay:10.37,2013-11-01 02:24:00,
2013-10-31 22:25:00,65.9,57.4,29.89,East,93,5.1,9.2,74,0.00,CLR,,0.00,WeatherDisplay:10.37,2013-11-01 02:25:00,
2013-10-31 22:26:00,66.4,57.9,29.89,ESE,113,4.5,6.9,74,0.00,CLR,,0.00,WeatherDisplay:10.37,2013-11-01 02:26:00,
2013-10-31 22:28:00,65.9,57.7,29.89,SE,128,7.1,12.4,75,0.00,CLR,,0.00,WeatherDisplay:10.37,2013-11-01 02:28:00,
2013-10-31 22:29:00,66.4,57.9,29.89,SSW,198,6.0,13.8,74,0.00,CLR,,0.00,WeatherDisplay:10.37,2013-11-01 02:29:00,
2013-10-31 22:30:00,66.3,57.8,29.89,East,95,0.9,5.8,74,0.00,CLR,,0.00,WeatherDisplay:10.37,2013-11-01 02:30:00,
2013-10-31 22:32:00,66.2,57.7,29.88,SE,137,2.1,6.9,74,0.00,CLR,,0.00,WeatherDisplay:10.37,2013-11-01 02:32:00,
2013-10-31 22:33:00,66.2,57.7,29.89,ESE,117,3.5,8.1,74,0.00,CLR,,0.00,WeatherDisplay:10.37,2013-11-01 02:33:00,
2013-10-31 22:34:00,66.5,58.0,29.88,East,95,5.8,10.4,74,0.00,CLR,,0.00,WeatherDisplay:10.37,2013-11-01 02:34:00,
2013-10-31 22:35:00,66.5,58.0,29.88,ENE,78,0.7,4.6,74,0.00,CLR,,0.00,WeatherDisplay:10.37,2013-11-01 02:35:00,
2013-10-31 22:37:00,66.3,57.8,29.88,ENE,78,0.0,0.0,74,0.00,CLR,,0.00,WeatherDisplay:10.37,2013-11-01 02:37:00,
2013-10-31 22:38:00,66.0,57.5,29.88,SE,145,3.6,6.9,74,0.00,CLR,,0.00,WeatherDisplay:10.37,2013-11-01 02:38:00,
2013-10-31 22:39:00,66.0,57.5,29.88,SE,145,3.5,6.9,74,0.00,CLR,,0.00,WeatherDisplay:10.37,2013-11-01 02:39:00,
2013-10-31 22:40:00,66.0,57.5,29.88,SE,126,3.5,11.1,74,0.00,CLR,,0.00,WeatherDisplay:10.37,2013-11-01 02:40:00,
2013-10-31 22:41:00,66.9,58.3,29.88,SE,144,7.0,11.5,74,0.00,CLR,,0.00,WeatherDisplay:10.37,2013-11-01 02:41:00,
2013-10-31 22:42:00,66.4,57.9,29.88,SE,131,4.7,8.1,74,0.00,CLR,,0.00,WeatherDisplay:10.37,2013-11-01 02:42:00,
2013-10-31 22:44:00,66.3,57.8,29.88,East,96,3.4,9.6,74,0.00,CLR,,0.00,WeatherDisplay:10.37,2013-11-01 02:44:00,
2013-10-31 22:45:00,65.8,57.3,29.87,ESE,117,4.0,9.2,74,0.00,CLR,,0.00,WeatherDisplay:10.37,2013-11-01 02:45:00,
2013-10-31 22:46:00,66.6,58.1,29.88,East,79,4.6,6.9,74,0.00,CLR,,0.00,WeatherDisplay:10.37,2013-11-01 02:46:00,
2013-10-31 22:47:00,66.2,57.7,29.88,South,182,0.8,6.5,74,0.00,CLR,,0.00,WeatherDisplay:10.37,2013-11-01 02:47:00,
2013-10-31 22:49:00,66.1,57.6,29.88,ESE,114,4.3,8.3,74,0.00,CLR,,0.00,WeatherDisplay:10.37,2013-11-01 02:49:00,
2013-10-31 22:50:00,66.1,57.6,29.88,SE,133,1.3,9.2,74,0.00,CLR,,0.00,WeatherDisplay:10.37,2013-11-01 02:50:00,
2013-10-31 22:51:00,66.2,57.7,29.88,ESE,116,1.1,4.6,74,0.00,CLR,,0.00,WeatherDisplay:10.37,2013-11-01 02:51:00,
2013-10-31 22:52:00,66.0,57.5,29.88,South,171,3.0,4.6,74,0.00,CLR,,0.00,WeatherDisplay:10.37,2013-11-01 02:52:00,
2013-10-31 22:54:00,66.2,57.7,29.88,SE,131,1.8,5.8,74,0.00,CLR,,0.00,WeatherDisplay:10.37,2013-11-01 02:54:00,
2013-10-31 22:55:00,66.8,58.6,29.88,East,90,4.1,8.1,75,0.00,CLR,,0.00,WeatherDisplay:10.37,2013-11-01 02:55:00,
2013-10-31 22:56:00,66.0,57.8,29.87,ESE,103,5.6,6.9,75,0.00,CLR,,0.00,WeatherDisplay:10.37,2013-11-01 02:56:00,
2013-10-31 22:58:00,66.3,58.1,29.87,East,88,6.8,10.4,75,0.00,CLR,,0.00,WeatherDisplay:10.37,2013-11-01 02:58:00,
2013-10-31 22:59:00,66.1,57.9,29.87,ESE,114,6.1,10.4,75,0.00,CLR,,0.00,WeatherDisplay:10.37,2013-11-01 02:59:00,
2013-10-31 23:00:00,66.4,58.2,29.87,ESE,106,4.4,8.1,75,0.00,CLR,,0.00,WeatherDisplay:10.37,2013-11-01 03:00:00,
2013-10-31 23:01:00,66.7,58.5,29.87,SE,126,6.7,11.5,75,0.00,CLR,,0.00,WeatherDisplay:10.37,2013-11-01 03:01:00,
2013-10-31 23:02:00,66.1,57.9,29.87,ENE,78,6.9,11.5,75,0.00,CLR,,0.00,WeatherDisplay:10.37,2013-11-01 03:02:00,
2013-10-31 23:03:00,65.8,57.7,29.87,SSE,150,3.5,9.2,75,0.00,CLR,,0.00,WeatherDisplay:10.37,2013-11-01 03:03:00,
2013-10-31 23:04:00,66.2,58.0,29.87,ESE,110,2.0,9.2,75,0.00,CLR,,0.00,WeatherDisplay:10.37,2013-11-01 03:04:00,
2013-10-31 23:05:00,66.7,58.5,29.87,SE,138,4.1,5.8,75,0.00,CLR,,0.00,WeatherDisplay:10.37,2013-11-01 03:05:00,
2013-10-31 23:06:00,66.2,58.0,29.87,SE,130,2.9,9.2,75,0.00,CLR,,0.00,WeatherDisplay:10.37,2013-11-01 03:06:00,
2013-10-31 23:07:00,66.2,58.0,29.87,ENE,68,1.3,8.1,75,0.00,CLR,,0.00,WeatherDisplay:10.37,2013-11-01 03:07:00,
2013-10-31 23:09:00,66.2,58.0,29.87,ESE,116,0.6,4.6,75,0.00,CLR,,0.00,WeatherDisplay:10.37,2013-11-01 03:09:00,
2013-10-31 23:11:00,66.0,57.8,29.87,SE,141,0.4,6.9,75,0.00,CLR,,0.00,WeatherDisplay:10.37,2013-11-01 03:11:00,
2013-10-31 23:12:00,66.2,58.0,29.86,ESE,102,1.2,4.6,75,0.00,CLR,,0.00,WeatherDisplay:10.37,2013-11-01 03:12:00,
2013-10-31 23:14:00,66.3,58.1,29.86,SE,134,5.2,6.9,75,0.00,CLR,,0.00,WeatherDisplay:10.37,2013-11-01 03:14:00,
2013-10-31 23:15:00,66.1,57.9,29.86,SE,141,2.4,6.9,75,0.00,CLR,,0.00,WeatherDisplay:10.37,2013-11-01 03:15:00,
2013-10-31 23:16:00,66.6,58.4,29.86,SSE,150,0.0,6.0,75,0.00,CLR,,0.00,WeatherDisplay:10.37,2013-11-01 03:16:00,
2013-10-31 23:17:00,66.4,58.2,29.85,East,100,6.9,11.5,75,0.00,CLR,,0.00,WeatherDisplay:10.37,2013-11-01 03:17:00,
2013-10-31 23:19:00,66.0,58.2,29.85,ENE,78,5.7,9.2,76,0.00,CLR,,0.00,WeatherDisplay:10.37,2013-11-01 03:19:00,
2013-10-31 23:21:00,66.3,58.5,29.85,ESE,119,5.5,12.5,76,0.00,CLR,,0.00,WeatherDisplay:10.37,2013-11-01 03:21:00,
2013-10-31 23:22:00,65.9,58.1,29.86,SSE,157,7.2,11.5,76,0.00,CLR,,0.00,WeatherDisplay:10.37,2013-11-01 03:22:00,
2013-10-31 23:23:00,66.3,58.5,29.86,SE,138,6.2,11.5,76,0.00,CLR,,0.00,WeatherDisplay:10.37,2013-11-01 03:23:00,
2013-10-31 23:24:00,66.8,59.0,29.86,SSW,212,2.2,10.4,76,0.00,CLR,,0.00,WeatherDisplay:10.37,2013-11-01 03:24:00,
2013-10-31 23:26:00,66.6,58.8,29.86,ESE,123,3.4,9.2,76,0.00,CLR,,0.00,WeatherDisplay:10.37,2013-11-01 03:26:00,
2013-10-31 23:27:00,65.9,58.1,29.86,South,191,5.7,12.7,76,0.00,CLR,,0.00,WeatherDisplay:10.37,2013-11-01 03:27:00,
2013-10-31 23:29:00,66.1,58.3,29.85,East,97,1.2,11.5,76,0.00,CLR,,0.00,WeatherDisplay:10.37,2013-11-01 03:29:00,
2013-10-31 23:30:00,65.8,58.0,29.84,East,97,0.0,3.5,76,0.00,CLR,,0.00,WeatherDisplay:10.37,2013-11-01 03:30:00,
2013-10-31 23:31:00,65.7,57.9,29.84,SSE,157,6.7,8.1,76,0.00,CLR,,0.00,WeatherDisplay:10.37,2013-11-01 03:31:00,
2013-10-31 23:32:00,66.4,58.6,29.84,ESE,119,5.3,8.7,76,0.00,CLR,,0.00,WeatherDisplay:10.37,2013-11-01 03:32:00,
2013-10-31 23:34:00,66.3,58.9,29.84,South,189,5.6,12.7,77,0.00,CLR,,0.00,WeatherDisplay:10.37,2013-11-01 03:34:00,
2013-10-31 23:35:00,66.5,59.1,29.84,NE,56,7.2,12.7,77,0.00,CLR,,0.00,WeatherDisplay:10.37,2013-11-01 03:35:00,
2013-10-31 23:36:00,65.8,58.4,29.84,ENE,59,2.5,5.8,77,0.00,CLR,,0.00,WeatherDisplay:10.37,2013-11-01 03:36:00,
2013-10-31 23:37:00,66.1,58.7,29.84,SSW,203,2.5,8.0,77,0.00,CLR,,0.00,WeatherDisplay:10.37,2013-11-01 03:37:00,
2013-10-31 23:38:00,66.5,59.1,29.84,NE,47,2.4,8.1,77,0.00,CLR,,0.00,WeatherDisplay:10.37,2013-11-01 03:38:00,
2013-10-31 23:39:00,66.4,59.0,29.84,SE,138,5.1,11.5,77,0.00,CLR,,0.00,WeatherDisplay:10.37,2013-11-01 03:39:00,
2013-10-31 23:40:00,66.0,58.6,29.84,SSE,161,6.6,11.5,77,0.00,CLR,,0.00,WeatherDisplay:10.37,2013-11-01 03:40:00,
2013-10-31 23:41:00,66.2,58.8,29.84,ESE,119,1.4,6.9,77,0.00,CLR,,0.00,WeatherDisplay:10.37,2013-11-01 03:41:00,
2013-10-31 23:42:00,66.1,58.7,29.84,ESE,119,0.0,6.9,77,0.00,CLR,,0.00,WeatherDisplay:10.37,2013-11-01 03:42:00,
2013-10-31 23:43:00,66.3,58.9,29.84,SSW,193,3.4,9.2,77,0.00,CLR,,0.00,WeatherDisplay:10.37,2013-11-01 03:43:00,
2013-10-31 23:45:00,66.1,58.7,29.83,East,92,4.8,7.5,77,0.00,CLR,,0.00,WeatherDisplay:10.37,2013-11-01 03:45:00,
2013-10-31 23:46:00,66.1,58.7,29.83,ESE,120,6.7,10.4,77,0.00,CLR,,0.00,WeatherDisplay:10.37,2013-11-01 03:46:00,
2013-10-31 23:47:00,66.0,58.6,29.83,East,93,3.2,10.4,77,0.00,CLR,,0.00,WeatherDisplay:10.37,2013-11-01 03:47:00,
2013-10-31 23:48:00,65.8,58.4,29.83,East,93,0.0,0.0,77,0.00,CLR,,0.00,WeatherDisplay:10.37,2013-11-01 03:48:00,
2013-10-31 23:49:00,66.3,58.9,29.84,East,93,0.0,0.0,77,0.00,CLR,,0.00,WeatherDisplay:10.37,2013-11-01 03:49:00,
2013-10-31 23:50:00,66.3,58.9,29.84,South,175,4.1,9.2,77,0.00,CLR,,0.00,WeatherDisplay:10.37,2013-11-01 03:50:00,
2013-10-31 23:51:00,66.5,59.1,29.84,SW,232,4.3,9.2,77,0.00,CLR,,0.00,WeatherDisplay:10.37,2013-11-01 03:51:00,
2013-10-31 23:52:00,66.1,58.7,29.84,SSW,192,1.6,5.8,77,0.00,CLR,,0.00,WeatherDisplay:10.37,2013-11-01 03:52:00,
2013-10-31 23:53:00,66.4,59.3,29.84,SSE,160,2.9,8.1,78,0.00,CLR,,0.00,WeatherDisplay:10.37,2013-11-01 03:53:00,
2013-10-31 23:54:00,66.6,59.2,29.85,ESE,121,3.5,8.1,77,0.00,CLR,,0.00,WeatherDisplay:10.37,2013-11-01 03:54:00,
2013-10-31 23:55:00,66.4,59.3,29.84,South,185,5.9,8.1,78,0.00,CLR,,0.00,WeatherDisplay:10.37,2013-11-01 03:55:00,
2013-10-31 23:56:00,66.3,59.2,29.84,ENE,78,3.1,9.2,78,0.00,CLR,,0.00,WeatherDisplay:10.37,2013-11-01 03:56:00,
2013-10-31 23:57:00,66.4,59.3,29.83,ESE,107,2.4,9.2,78,0.00,CLR,,0.00,WeatherDisplay:10.37,2013-11-01 03:57:00,
2013-10-31 23:59:00,66.4,59.3,29.83,East,93,2.0,6.9,78,0.00,CLR,,0.00,WeatherDisplay:10.37,2013-11-01 03:59:00,